[{"header": {"parameterCategory": 1, "parameterNumber": 2, "dx": 0.06612293990616946, "dy": 0.0552356325346848, "nx": 98, "ny": 59, "la1": 35.046912555036876, "la2": 31.78801023549047, "lo1": -121.43107172385933, "lo2": -114.95102361305473, "refTime": "2026041109"}, "data": [6.26, 5.81, 5.81, 5.36, 5.36, 5.36, 5.36, 5.36, 5.36, 5.36, 5.36, 5.36, 4.92, 5.36, 5.36, 5.36, 5.36, 5.36, 5.36, 4.92, 4.92, 4.02, 3.58, 2.68, 2.24, 2.24, 2.24, 2.24, 2.24, 2.68, 3.13, 3.13, 3.58, 3.58, 3.58, 3.58, 4.02, 4.47, 5.36, 6.26, 6.71, 7.6, 7.6, 7.6, 7.15, 6.71, 6.26, 6.26, 6.26, 6.26, 6.26, 6.71, 7.6, 8.05, 8.49, 8.94, 8.49, 8.49, 8.49, 8.49, 8.49, 8.05, 7.6, 7.15, 7.15, 7.15, 7.15, 7.6, 7.6, 7.15, 5.81, 4.92, 4.47, 4.92, 4.92, 5.36, 5.36, 4.92, 4.47, 4.02, 2.68, 2.24, 1.79, 2.24, 2.68, 3.58, 4.02, 4.47, 4.92, 4.92, 5.36, 5.36, 5.36, 4.92, 4.47, 4.02, 3.58, 3.58, 6.26, 6.26, 5.81, 5.81, 5.36, 5.36, 5.36, 5.36, 5.36, 5.36, 5.36, 5.36, 5.36, 5.36, 5.36, 5.36, 5.36, 5.36, 5.36, 5.36, 4.92, 4.92, 4.02, 3.13, 2.68, 2.24, 2.24, 2.68, 2.68, 2.68, 3.13, 3.58, 3.58, 4.02, 4.02, 4.02, 4.02, 4.47, 5.36, 6.26, 7.15, 7.6, 8.05, 7.6, 7.15, 6.71, 6.71, 6.26, 6.26, 6.26, 6.71, 7.15, 7.6, 8.49, 8.94, 9.39, 8.94, 8.94, 8.49, 8.49, 8.49, 8.49, 8.05, 7.6, 7.15, 7.15, 7.15, 7.6, 8.05, 7.6, 6.26, 4.92, 4.47, 4.02, 4.47, 5.36, 5.36, 4.92, 4.47, 4.02, 2.68, 2.24, 1.79, 2.24, 2.68, 3.58, 4.02, 4.47, 4.92, 4.92, 5.36, 5.36, 5.36, 4.92, 4.47, 4.02, 3.58, 3.58, 6.26, 6.26, 5.81, 5.81, 5.36, 5.36, 5.36, 5.36, 5.36, 5.36, 5.36, 5.36, 5.36, 5.36, 5.36, 5.36, 5.36, 5.36, 5.36, 5.36, 4.92, 4.92, 4.47, 4.02, 3.58, 2.68, 2.68, 2.68, 2.68, 3.13, 3.13, 3.58, 4.02, 4.02, 4.02, 4.02, 4.02, 4.02, 4.92, 6.26, 7.15, 8.05, 8.05, 8.05, 7.6, 6.71, 6.71, 6.26, 6.26, 6.71, 7.15, 7.15, 8.05, 8.49, 8.94, 9.39, 9.39, 8.94, 8.49, 8.49, 8.49, 8.49, 8.49, 8.05, 7.6, 7.6, 7.15, 7.6, 8.05, 8.05, 7.15, 5.81, 4.47, 4.02, 4.02, 5.36, 5.81, 5.36, 4.47, 3.58, 2.68, 1.79, 2.24, 2.68, 3.58, 4.02, 4.47, 4.47, 4.92, 5.36, 5.36, 5.36, 5.36, 4.92, 4.47, 4.02, 3.58, 3.58, 6.71, 6.26, 6.26, 5.81, 5.81, 5.36, 5.36, 5.36, 5.36, 5.36, 5.36, 5.36, 5.36, 5.36, 5.36, 5.36, 5.36, 5.36, 5.36, 5.36, 4.92, 4.92, 4.92, 4.47, 4.47, 4.02, 3.13, 3.13, 3.13, 3.13, 3.58, 4.02, 4.02, 4.47, 4.47, 4.02, 4.02, 4.02, 4.02, 5.81, 7.15, 8.49, 8.49, 8.05, 7.6, 6.71, 6.26, 6.26, 6.26, 6.71, 7.15, 7.6, 8.05, 8.49, 9.39, 9.39, 8.94, 8.94, 8.49, 8.49, 8.94, 8.94, 8.94, 8.94, 8.49, 8.05, 7.6, 7.15, 7.6, 7.6, 7.15, 6.26, 4.92, 4.02, 4.02, 4.92, 5.36, 5.36, 4.02, 3.58, 2.68, 2.68, 3.13, 4.02, 4.47, 4.47, 4.47, 4.92, 5.36, 5.81, 5.81, 5.36, 5.36, 4.92, 4.47, 4.02, 3.58, 3.58, 6.71, 6.71, 6.26, 6.26, 5.81, 5.81, 5.36, 5.36, 5.36, 5.36, 5.36, 5.36, 5.36, 5.36, 5.36, 5.36, 5.36, 5.36, 5.36, 5.36, 5.36, 4.92, 4.92, 4.47, 4.47, 4.47, 4.47, 3.58, 3.13, 3.13, 3.13, 3.58, 4.02, 4.47, 4.92, 4.47, 4.47, 4.02, 3.58, 4.92, 7.15, 8.49, 8.49, 8.49, 7.15, 6.26, 5.36, 5.36, 5.81, 6.71, 7.15, 7.6, 8.05, 8.94, 9.39, 9.39, 8.94, 8.94, 8.49, 8.94, 8.94, 9.39, 9.83, 9.83, 9.83, 8.94, 7.6, 7.15, 6.71, 6.26, 5.81, 5.36, 4.47, 4.02, 3.58, 4.02, 4.92, 4.92, 4.02, 4.02, 3.58, 4.02, 4.47, 4.92, 5.36, 4.92, 4.92, 5.36, 5.36, 5.81, 5.81, 5.36, 5.36, 4.92, 4.47, 4.47, 4.02, 4.02, 6.71, 6.71, 6.26, 6.26, 6.26, 5.81, 5.81, 5.81, 5.36, 5.36, 5.36, 5.36, 5.36, 5.36, 5.36, 5.36, 5.36, 5.36, 5.36, 5.36, 4.92, 4.92, 4.92, 4.92, 4.47, 4.47, 4.47, 4.02, 3.58, 3.13, 3.13, 3.58, 3.58, 4.02, 4.47, 4.47, 4.47, 4.02, 3.13, 4.47, 6.26, 8.05, 8.49, 8.49, 7.15, 5.36, 4.02, 4.47, 5.36, 6.71, 7.6, 8.05, 8.49, 8.94, 9.39, 9.39, 9.39, 8.94, 8.94, 8.94, 9.39, 9.83, 10.28, 10.73, 10.73, 9.83, 8.05, 6.71, 6.26, 5.81, 4.92, 4.47, 4.47, 4.47, 4.02, 4.02, 4.02, 4.47, 4.47, 4.47, 4.47, 4.92, 5.36, 5.81, 5.81, 5.36, 5.36, 5.36, 5.36, 5.81, 5.81, 5.81, 5.36, 4.92, 4.92, 4.47, 4.02, 4.02, 6.71, 6.71, 6.71, 6.26, 6.26, 6.26, 5.81, 5.81, 5.81, 5.81, 5.81, 5.81, 5.36, 5.36, 5.36, 5.36, 5.36, 5.36, 4.92, 4.92, 4.92, 4.92, 4.92, 4.47, 4.47, 4.47, 4.47, 4.47, 4.02, 3.58, 3.58, 3.58, 3.58, 4.02, 4.02, 4.02, 4.47, 4.47, 3.58, 4.02, 5.36, 6.71, 8.05, 8.05, 6.26, 4.02, 3.13, 4.02, 5.81, 7.15, 7.6, 8.05, 8.94, 9.39, 9.83, 9.39, 9.39, 9.39, 9.39, 9.39, 9.39, 9.83, 10.28, 10.73, 11.18, 10.73, 8.94, 7.15, 6.26, 5.36, 4.92, 4.47, 5.36, 5.81, 5.36, 4.47, 4.02, 4.47, 4.92, 5.81, 5.36, 6.26, 6.71, 6.71, 6.26, 5.81, 5.81, 5.36, 5.36, 5.81, 5.81, 5.81, 5.36, 4.92, 4.92, 4.47, 4.47, 4.02, 7.15, 6.71, 6.71, 6.71, 6.71, 6.26, 6.26, 5.81, 5.81, 5.81, 5.81, 5.81, 5.81, 5.81, 5.81, 5.81, 5.36, 5.36, 5.36, 4.92, 4.92, 4.92, 4.92, 4.92, 4.47, 4.47, 4.47, 4.47, 4.02, 4.02, 3.58, 3.58, 3.58, 4.02, 4.02, 4.02, 4.02, 4.02, 3.58, 3.58, 4.47, 4.92, 6.26, 6.26, 4.47, 3.13, 3.13, 5.81, 8.05, 8.05, 8.05, 8.49, 9.39, 9.83, 9.83, 9.83, 9.83, 9.83, 9.83, 9.39, 9.83, 9.83, 10.28, 10.73, 11.18, 11.18, 9.83, 7.6, 6.26, 5.81, 4.92, 4.92, 5.36, 6.26, 5.81, 5.36, 4.92, 5.36, 5.81, 6.71, 8.05, 7.15, 7.6, 7.6, 7.15, 6.71, 6.26, 5.36, 5.36, 5.36, 5.81, 5.81, 5.36, 4.92, 4.92, 4.47, 4.47, 4.47, 7.15, 7.15, 7.15, 6.71, 6.71, 6.71, 6.26, 6.26, 5.81, 5.81, 5.81, 5.81, 5.81, 5.81, 5.81, 5.81, 5.81, 5.36, 5.36, 5.36, 4.92, 4.92, 4.92, 4.92, 4.92, 4.47, 4.47, 4.47, 4.02, 4.02, 3.58, 3.58, 3.58, 4.02, 4.02, 4.02, 3.58, 4.02, 3.58, 3.13, 3.13, 3.58, 4.02, 4.47, 4.02, 3.13, 4.92, 8.05, 9.39, 8.94, 8.94, 9.39, 9.83, 9.83, 9.83, 9.83, 9.83, 9.83, 9.83, 9.83, 9.83, 9.83, 10.28, 10.73, 11.62, 11.62, 10.28, 8.49, 7.15, 6.26, 5.36, 4.92, 5.36, 5.81, 6.26, 6.26, 6.26, 6.26, 7.15, 7.6, 8.94, 8.05, 8.49, 8.05, 7.6, 6.71, 6.26, 5.81, 5.36, 5.36, 5.36, 5.36, 5.36, 5.36, 4.92, 4.92, 4.47, 4.47, 7.15, 7.15, 7.15, 7.15, 6.71, 6.71, 6.71, 6.26, 6.26, 6.26, 5.81, 5.81, 5.81, 5.81, 5.81, 5.81, 5.81, 5.81, 5.36, 5.36, 4.92, 4.92, 4.92, 4.92, 4.92, 4.47, 4.47, 4.47, 4.47, 4.02, 4.02, 3.58, 3.58, 4.02, 4.02, 4.02, 3.58, 3.58, 3.58, 3.13, 2.24, 2.68, 2.68, 3.13, 4.02, 4.92, 8.05, 10.28, 10.28, 9.39, 9.83, 10.28, 10.28, 9.83, 9.39, 9.39, 9.83, 9.83, 9.83, 9.83, 9.83, 9.83, 10.28, 10.73, 11.62, 11.62, 11.18, 9.83, 8.49, 7.15, 5.81, 4.92, 4.92, 5.81, 6.71, 6.71, 6.71, 7.15, 8.05, 8.49, 8.94, 9.39, 8.94, 8.94, 8.05, 7.15, 6.26, 5.81, 5.36, 4.92, 4.92, 5.36, 5.36, 5.36, 4.92, 4.92, 4.92, 4.92, 7.6, 7.15, 7.15, 7.15, 7.15, 6.71, 6.71, 6.71, 6.26, 6.26, 6.26, 6.26, 6.26, 5.81, 5.81, 5.81, 5.81, 5.81, 5.81, 5.36, 5.36, 5.36, 4.92, 4.92, 4.92, 4.92, 4.92, 4.47, 4.47, 4.47, 4.02, 3.58, 3.58, 3.58, 4.02, 4.02, 4.02, 3.58, 3.58, 3.13, 2.68, 2.24, 1.79, 2.24, 4.92, 8.49, 10.73, 10.73, 9.83, 9.39, 9.83, 10.73, 10.73, 10.28, 9.83, 9.83, 9.39, 9.83, 9.39, 9.39, 9.83, 9.83, 10.28, 11.18, 11.62, 12.07, 12.07, 11.18, 10.28, 8.49, 6.71, 4.92, 4.92, 5.36, 6.71, 7.15, 7.6, 8.05, 8.49, 8.94, 8.94, 8.94, 8.94, 8.94, 8.49, 7.6, 6.71, 6.26, 5.36, 4.92, 4.47, 4.92, 5.36, 5.36, 4.92, 4.92, 4.92, 4.92, 7.6, 7.6, 7.6, 7.15, 7.15, 7.15, 6.71, 6.71, 6.71, 6.71, 6.26, 6.26, 6.26, 6.26, 6.26, 6.26, 6.26, 6.26, 5.81, 5.81, 5.36, 5.36, 5.36, 4.92, 4.92, 4.92, 4.92, 4.92, 4.92, 4.47, 4.47, 4.02, 4.02, 4.02, 4.02, 3.58, 3.58, 3.58, 3.13, 3.13, 3.13, 2.68, 2.24, 2.68, 5.81, 9.39, 10.28, 9.83, 9.39, 9.39, 9.83, 10.28, 10.28, 10.28, 10.28, 10.28, 10.28, 10.28, 9.83, 9.39, 9.39, 9.83, 10.73, 11.18, 12.07, 12.52, 12.96, 12.52, 11.18, 9.39, 7.15, 5.36, 4.47, 5.36, 6.26, 7.15, 8.05, 8.49, 8.94, 8.94, 8.49, 8.94, 8.49, 8.94, 8.49, 8.05, 7.15, 6.71, 5.81, 4.92, 4.47, 4.47, 5.36, 5.36, 4.92, 4.92, 4.92, 4.92, 8.05, 7.6, 7.6, 7.6, 7.15, 7.15, 7.15, 6.71, 6.71, 6.71, 6.71, 6.26, 6.26, 6.26, 6.26, 6.26, 6.26, 6.26, 6.26, 5.81, 5.81, 5.36, 5.36, 4.92, 4.92, 4.92, 4.92, 4.92, 4.92, 4.92, 4.47, 4.47, 4.02, 4.02, 4.02, 3.58, 3.58, 3.58, 3.58, 3.13, 3.13, 3.13, 3.13, 4.02, 5.36, 7.15, 7.6, 8.05, 8.94, 8.94, 8.94, 8.49, 8.05, 7.6, 7.6, 8.05, 9.83, 11.18, 10.28, 9.39, 9.39, 10.28, 11.18, 11.62, 11.62, 12.52, 13.41, 13.86, 12.96, 10.73, 8.05, 4.92, 3.58, 4.47, 5.81, 7.15, 8.05, 8.94, 8.94, 8.49, 8.49, 8.49, 8.49, 8.05, 8.49, 8.49, 7.6, 7.15, 6.26, 4.92, 4.02, 4.02, 4.92, 5.36, 5.36, 5.36, 5.36, 5.36, 8.05, 8.05, 7.6, 7.6, 7.6, 7.15, 7.15, 7.15, 6.71, 6.71, 6.71, 6.71, 6.71, 6.26, 6.26, 6.26, 6.26, 6.26, 6.26, 6.26, 5.81, 5.81, 5.36, 5.36, 5.36, 5.36, 5.36, 5.36, 5.36, 5.36, 4.92, 4.92, 4.47, 4.02, 4.02, 3.58, 3.58, 3.58, 3.58, 3.58, 3.58, 3.58, 4.02, 4.47, 5.36, 6.26, 6.71, 7.15, 8.05, 8.49, 8.49, 7.6, 7.15, 6.71, 6.26, 6.71, 7.6, 9.39, 11.62, 9.83, 9.83, 10.28, 10.73, 11.18, 11.18, 11.62, 11.62, 12.52, 13.41, 13.41, 10.73, 6.71, 3.58, 3.58, 5.81, 7.6, 8.49, 8.94, 8.94, 8.49, 8.05, 8.05, 8.05, 8.05, 8.49, 8.49, 8.05, 7.6, 7.15, 5.81, 4.47, 4.02, 4.47, 5.36, 5.36, 5.36, 5.36, 5.36, 8.05, 8.05, 8.05, 7.6, 7.6, 7.15, 7.15, 7.15, 7.15, 7.15, 7.15, 6.71, 6.71, 6.71, 6.71, 6.71, 6.71, 6.71, 6.26, 6.26, 6.26, 5.81, 5.81, 5.36, 5.36, 5.36, 5.36, 5.36, 5.36, 5.36, 5.36, 4.92, 4.92, 4.47, 4.47, 4.02, 4.02, 4.02, 3.58, 3.58, 3.58, 4.02, 4.02, 4.92, 5.36, 6.26, 6.71, 7.15, 7.6, 8.05, 8.05, 7.6, 7.15, 7.15, 6.71, 6.71, 6.26, 7.6, 10.28, 10.28, 9.83, 9.83, 9.83, 10.28, 9.83, 9.83, 9.83, 11.18, 13.41, 14.75, 13.86, 10.73, 5.36, 3.13, 4.92, 7.6, 8.49, 8.94, 8.49, 8.05, 8.05, 8.05, 8.05, 8.05, 8.49, 8.94, 8.49, 8.05, 8.05, 6.71, 4.92, 3.58, 4.47, 5.36, 5.81, 5.36, 5.36, 5.36, 8.49, 8.05, 8.05, 8.05, 7.6, 7.6, 7.15, 7.15, 7.15, 7.15, 7.15, 7.15, 7.15, 6.71, 6.71, 6.71, 6.71, 6.71, 6.71, 6.26, 6.26, 6.26, 5.81, 5.81, 5.36, 5.36, 5.36, 5.36, 5.36, 5.36, 5.36, 5.36, 4.92, 4.92, 4.47, 4.47, 4.47, 4.47, 4.02, 4.02, 4.02, 4.02, 4.47, 4.92, 5.36, 6.26, 6.71, 7.15, 7.6, 8.05, 8.05, 7.6, 7.6, 7.6, 7.15, 7.15, 7.15, 8.05, 9.39, 10.28, 10.28, 10.28, 9.83, 9.39, 9.39, 8.94, 9.39, 11.18, 12.96, 13.86, 13.86, 12.52, 8.05, 4.02, 4.47, 6.71, 8.05, 8.05, 8.05, 8.05, 8.05, 7.6, 7.6, 8.05, 8.49, 8.94, 8.94, 8.94, 8.49, 7.6, 5.81, 4.02, 4.92, 5.81, 5.36, 5.36, 4.92, 4.92, 8.49, 8.49, 8.05, 8.05, 7.6, 7.6, 7.6, 7.6, 7.15, 7.15, 7.15, 7.15, 7.15, 7.15, 7.15, 7.15, 6.71, 6.71, 6.71, 6.71, 6.71, 6.26, 6.26, 5.81, 5.81, 5.81, 5.81, 5.81, 5.36, 5.36, 5.36, 5.36, 5.36, 5.36, 4.92, 4.92, 4.92, 4.92, 4.47, 4.47, 4.47, 4.47, 4.47, 4.92, 5.36, 6.26, 6.71, 7.15, 7.6, 8.05, 8.05, 7.6, 7.6, 7.6, 7.6, 7.6, 8.49, 8.94, 9.83, 10.28, 10.28, 10.28, 10.28, 9.83, 9.83, 9.39, 9.83, 10.28, 10.28, 12.07, 14.75, 13.41, 8.94, 5.36, 4.92, 5.81, 6.71, 6.71, 6.71, 7.6, 8.05, 7.6, 7.15, 7.6, 8.49, 8.94, 9.39, 8.94, 8.49, 7.15, 5.36, 4.47, 4.92, 5.36, 5.36, 4.92, 4.47, 4.47, 8.94, 8.49, 8.49, 8.05, 8.05, 7.6, 7.6, 7.6, 7.6, 7.6, 7.6, 7.6, 7.6, 7.6, 7.15, 7.15, 7.15, 7.15, 6.71, 6.71, 6.71, 6.71, 6.71, 6.26, 5.81, 5.81, 5.81, 5.81, 5.81, 5.81, 5.81, 5.81, 5.36, 5.36, 5.36, 5.36, 5.36, 4.92, 4.92, 4.47, 4.47, 4.47, 4.92, 5.36, 5.81, 6.26, 6.71, 7.15, 7.6, 7.6, 7.6, 7.6, 8.05, 8.05, 8.05, 8.49, 8.94, 9.39, 9.83, 10.73, 10.73, 10.73, 10.28, 10.28, 10.28, 10.28, 9.83, 10.28, 9.83, 11.62, 15.2, 13.86, 9.83, 6.26, 4.92, 5.36, 6.26, 5.81, 5.81, 6.26, 7.15, 6.71, 6.71, 8.05, 8.94, 9.39, 9.39, 9.39, 8.49, 7.6, 6.26, 4.92, 4.92, 5.36, 5.36, 4.47, 4.02, 4.02, 8.94, 8.94, 8.49, 8.49, 8.05, 8.05, 7.6, 7.6, 7.6, 7.6, 7.6, 7.6, 7.6, 7.6, 7.6, 7.6, 7.15, 7.15, 7.15, 6.71, 6.71, 6.71, 6.71, 6.71, 6.26, 6.26, 6.26, 6.26, 5.81, 5.81, 5.81, 5.81, 5.81, 5.81, 5.81, 5.81, 5.36, 5.36, 5.36, 4.92, 4.92, 4.92, 4.92, 5.36, 6.26, 6.71, 7.15, 7.15, 7.15, 7.6, 7.6, 7.6, 8.05, 8.49, 8.49, 8.94, 9.39, 9.83, 10.28, 10.73, 10.73, 10.73, 10.73, 10.73, 10.28, 10.28, 10.28, 10.28, 11.18, 12.96, 15.2, 15.2, 11.18, 5.81, 4.02, 4.92, 5.81, 6.26, 6.26, 6.26, 6.71, 6.71, 7.6, 8.05, 8.94, 9.39, 9.83, 10.28, 8.94, 8.05, 6.71, 5.36, 4.92, 5.36, 5.36, 4.47, 4.02, 4.02, 8.94, 8.94, 8.94, 8.49, 8.49, 8.05, 8.05, 8.05, 7.6, 7.6, 7.6, 7.6, 7.6, 7.6, 7.6, 7.6, 7.6, 7.6, 7.15, 7.15, 7.15, 7.15, 7.15, 6.71, 6.71, 6.26, 6.26, 6.26, 6.26, 6.26, 6.26, 6.26, 5.81, 5.81, 5.81, 5.81, 5.81, 5.81, 5.81, 5.36, 5.36, 4.92, 5.36, 5.81, 6.26, 6.71, 7.15, 7.15, 7.15, 7.6, 7.6, 8.05, 8.05, 8.49, 8.94, 9.39, 9.83, 9.83, 10.28, 10.73, 11.18, 11.18, 10.73, 10.73, 10.73, 10.73, 10.73, 11.18, 12.07, 13.41, 15.65, 16.09, 12.52, 6.71, 3.58, 4.02, 4.47, 5.81, 7.15, 7.15, 6.71, 7.15, 7.6, 8.49, 9.39, 9.83, 10.28, 10.73, 9.39, 8.49, 7.15, 6.26, 5.36, 5.36, 5.36, 4.47, 3.58, 3.58, 8.94, 8.94, 8.94, 8.94, 8.49, 8.49, 8.05, 8.05, 8.05, 8.05, 8.05, 8.05, 8.05, 8.05, 8.05, 7.6, 7.6, 7.6, 7.6, 7.15, 7.15, 7.15, 7.15, 7.15, 6.71, 6.71, 6.71, 6.71, 6.71, 6.26, 6.26, 6.26, 6.26, 6.26, 6.26, 6.26, 6.26, 5.81, 5.81, 5.81, 5.36, 5.36, 5.36, 5.81, 6.26, 6.71, 7.15, 7.15, 7.6, 7.6, 7.6, 8.05, 8.49, 8.94, 8.94, 9.39, 9.83, 10.28, 10.73, 10.73, 11.18, 11.18, 10.73, 10.73, 11.18, 11.18, 11.18, 11.62, 12.52, 13.86, 15.65, 16.09, 13.41, 7.6, 4.02, 3.58, 4.47, 5.36, 6.71, 7.6, 7.6, 7.15, 7.6, 8.49, 9.39, 9.83, 10.73, 11.18, 10.73, 8.49, 7.6, 6.26, 5.36, 5.36, 5.36, 4.47, 3.58, 3.58, 9.39, 9.39, 8.94, 8.94, 8.94, 8.49, 8.49, 8.49, 8.05, 8.05, 8.05, 8.05, 8.05, 8.05, 8.05, 8.05, 8.05, 7.6, 7.6, 7.6, 7.6, 7.6, 7.15, 7.15, 7.15, 7.15, 7.15, 6.71, 6.71, 6.71, 6.71, 6.71, 6.71, 6.26, 6.26, 6.26, 6.26, 6.26, 6.26, 6.26, 5.81, 5.81, 5.81, 5.81, 6.26, 6.71, 7.15, 7.6, 7.6, 7.6, 8.05, 8.49, 8.49, 8.94, 9.39, 9.83, 10.28, 10.28, 10.73, 11.18, 11.18, 10.73, 11.18, 11.18, 11.62, 11.62, 12.07, 12.07, 12.52, 13.41, 15.2, 16.99, 14.75, 7.6, 4.02, 4.02, 3.58, 4.47, 5.81, 7.15, 8.49, 8.05, 7.6, 8.05, 8.94, 9.83, 10.73, 11.18, 11.18, 9.39, 8.05, 6.71, 5.81, 5.36, 4.92, 4.47, 4.02, 4.02, 9.39, 9.39, 9.39, 8.94, 8.94, 8.94, 8.49, 8.49, 8.49, 8.49, 8.05, 8.49, 8.49, 8.49, 8.49, 8.05, 8.05, 8.05, 8.05, 8.05, 7.6, 7.6, 7.6, 7.6, 7.6, 7.15, 7.15, 7.15, 7.15, 7.15, 6.71, 6.71, 6.71, 6.71, 6.71, 6.71, 6.71, 6.71, 6.71, 6.26, 6.26, 5.81, 5.81, 5.81, 6.26, 6.71, 7.15, 7.6, 7.6, 7.6, 8.05, 8.49, 8.94, 8.94, 9.39, 9.83, 10.28, 10.73, 11.18, 11.18, 10.73, 10.73, 11.18, 11.62, 12.07, 12.07, 12.07, 12.52, 12.52, 12.96, 13.86, 15.65, 9.83, 4.92, 4.92, 4.47, 3.58, 4.02, 4.92, 6.26, 8.05, 8.49, 8.49, 8.94, 9.39, 10.28, 10.73, 11.18, 11.18, 10.73, 8.94, 7.15, 5.81, 4.92, 4.92, 4.47, 4.02, 4.02, 9.83, 9.83, 9.39, 9.39, 9.39, 8.94, 8.94, 8.94, 8.49, 8.49, 8.49, 8.49, 8.49, 8.49, 8.49, 8.49, 8.49, 8.49, 8.05, 8.05, 8.05, 8.05, 8.05, 7.6, 7.6, 7.6, 7.6, 7.6, 7.6, 7.15, 7.15, 7.15, 7.15, 7.15, 7.15, 6.71, 6.71, 6.71, 6.71, 6.71, 6.71, 6.26, 6.26, 6.26, 6.26, 6.71, 7.15, 7.6, 7.6, 7.6, 8.05, 8.49, 8.94, 8.94, 9.39, 9.83, 10.28, 10.73, 10.73, 11.18, 10.73, 11.18, 11.18, 12.07, 12.07, 12.07, 12.52, 12.52, 12.96, 12.96, 12.96, 18.33, 15.2, 8.49, 7.15, 5.36, 3.58, 3.58, 4.47, 5.81, 7.15, 8.49, 8.94, 9.39, 9.83, 10.28, 10.73, 10.73, 11.18, 11.18, 9.83, 7.6, 5.81, 4.92, 4.47, 4.47, 4.02, 4.02, 9.83, 9.83, 9.83, 9.83, 9.39, 9.39, 9.39, 8.94, 8.94, 8.94, 8.49, 8.49, 8.49, 8.49, 8.49, 8.49, 8.49, 8.49, 8.49, 8.49, 8.49, 8.49, 8.05, 8.05, 8.05, 8.05, 7.6, 7.6, 7.6, 7.6, 7.6, 7.6, 7.15, 7.15, 7.15, 7.15, 7.15, 7.15, 7.15, 7.15, 6.71, 6.71, 6.26, 6.26, 6.26, 6.71, 7.15, 7.6, 7.6, 8.05, 8.05, 8.49, 8.94, 8.94, 9.39, 9.83, 10.28, 10.73, 10.73, 11.18, 11.18, 11.62, 11.62, 12.07, 12.52, 12.52, 12.52, 12.96, 12.96, 13.41, 14.75, 16.99, 17.43, 12.52, 8.49, 5.81, 3.58, 3.13, 4.02, 5.36, 6.71, 8.05, 8.94, 9.39, 9.83, 10.28, 10.73, 10.73, 11.18, 11.18, 10.73, 8.49, 6.26, 4.92, 4.47, 4.02, 3.58, 3.58, 9.83, 9.83, 9.83, 9.83, 9.83, 9.83, 9.83, 9.39, 9.39, 8.94, 8.94, 8.94, 8.94, 8.94, 8.94, 8.94, 8.94, 8.94, 8.94, 8.94, 8.94, 8.49, 8.49, 8.49, 8.49, 8.05, 8.05, 8.05, 8.05, 7.6, 7.6, 7.6, 7.6, 7.6, 7.6, 7.6, 7.15, 7.15, 7.15, 7.15, 7.15, 7.15, 6.71, 6.71, 6.71, 6.71, 7.15, 7.6, 7.6, 8.05, 8.49, 8.49, 8.94, 8.94, 9.39, 9.83, 9.83, 10.28, 10.73, 11.18, 11.62, 12.07, 12.07, 12.52, 12.52, 12.52, 12.96, 12.96, 13.41, 13.86, 14.75, 16.09, 16.54, 14.75, 10.73, 6.71, 3.58, 2.68, 4.02, 4.92, 6.26, 7.6, 8.94, 9.39, 9.83, 10.28, 10.28, 10.73, 10.73, 11.18, 11.18, 9.39, 6.71, 4.92, 4.02, 3.58, 3.58, 3.58, 10.28, 10.28, 10.28, 10.28, 10.28, 9.83, 9.83, 9.83, 9.39, 9.39, 9.39, 9.39, 8.94, 9.39, 9.39, 9.39, 9.39, 9.39, 9.39, 8.94, 8.94, 8.94, 8.94, 8.94, 8.49, 8.49, 8.49, 8.05, 8.05, 8.05, 8.05, 8.05, 8.05, 8.05, 8.05, 8.05, 8.05, 7.6, 7.6, 7.6, 7.6, 7.6, 7.15, 6.71, 6.71, 6.71, 7.15, 7.6, 8.05, 8.05, 8.49, 8.94, 8.94, 8.94, 9.39, 9.39, 9.83, 10.28, 11.18, 11.18, 11.62, 12.07, 12.52, 12.52, 12.52, 12.52, 12.96, 13.41, 13.41, 13.86, 14.75, 15.2, 15.65, 15.2, 12.96, 9.39, 4.47, 3.13, 4.47, 4.92, 5.81, 7.15, 8.49, 9.39, 10.28, 10.28, 10.28, 10.28, 10.73, 10.73, 10.73, 10.73, 7.6, 4.92, 4.02, 3.58, 3.58, 3.58, 10.73, 10.73, 10.73, 10.28, 10.28, 10.28, 10.28, 10.28, 9.83, 9.83, 9.39, 9.39, 9.39, 9.39, 9.39, 9.39, 9.39, 9.39, 9.39, 9.39, 9.39, 9.39, 9.39, 8.94, 8.94, 8.94, 8.49, 8.94, 8.49, 8.49, 8.49, 8.49, 8.49, 8.49, 8.05, 8.05, 8.05, 8.05, 8.05, 8.05, 8.05, 7.6, 7.6, 7.15, 7.15, 7.15, 7.6, 7.6, 8.05, 8.05, 8.49, 8.49, 8.94, 8.94, 9.39, 9.83, 10.28, 10.73, 11.18, 11.18, 11.62, 12.07, 12.52, 12.52, 12.52, 12.96, 13.41, 13.41, 13.86, 14.3, 14.75, 15.65, 15.65, 15.2, 13.86, 12.52, 8.49, 5.36, 4.92, 4.92, 5.36, 6.71, 8.49, 9.39, 10.28, 10.73, 10.28, 10.28, 10.28, 9.83, 10.28, 10.73, 8.94, 6.26, 4.47, 4.02, 4.02, 4.02, 10.73, 10.73, 10.73, 10.73, 10.73, 10.73, 10.28, 10.28, 10.28, 10.28, 9.83, 9.83, 9.83, 9.83, 9.83, 9.83, 9.83, 9.83, 9.83, 9.83, 9.83, 9.83, 9.39, 9.39, 9.39, 9.39, 9.39, 8.94, 8.94, 8.94, 8.94, 8.94, 8.49, 8.49, 8.49, 8.49, 8.49, 8.49, 8.05, 8.05, 8.05, 8.05, 7.6, 7.6, 7.6, 7.6, 7.6, 8.05, 8.05, 8.05, 8.49, 8.94, 8.94, 9.39, 9.39, 9.83, 10.28, 10.73, 11.18, 11.62, 11.62, 12.07, 12.52, 12.52, 12.96, 13.41, 13.41, 13.86, 13.86, 14.3, 15.2, 15.65, 16.09, 15.65, 14.3, 12.52, 10.73, 8.94, 6.26, 4.47, 4.92, 6.71, 8.05, 9.39, 10.28, 10.28, 10.28, 10.28, 10.28, 9.83, 9.83, 10.28, 9.83, 7.6, 5.81, 5.36, 5.36, 5.36, 11.18, 11.18, 11.18, 11.18, 10.73, 10.73, 10.73, 10.73, 10.73, 10.28, 10.28, 9.83, 9.83, 9.83, 9.83, 10.28, 10.28, 10.28, 10.28, 10.28, 9.83, 9.83, 10.28, 9.83, 9.83, 9.83, 9.39, 9.39, 9.39, 8.94, 8.94, 8.94, 8.94, 8.94, 8.94, 8.49, 8.49, 8.49, 8.49, 8.49, 8.49, 8.05, 8.05, 8.05, 7.6, 7.6, 7.6, 8.05, 8.49, 8.49, 8.94, 8.94, 8.94, 9.39, 9.83, 9.83, 10.28, 10.73, 11.18, 11.18, 11.62, 12.07, 12.52, 12.96, 12.96, 13.41, 13.41, 13.86, 14.3, 14.75, 15.2, 16.09, 16.99, 16.09, 14.3, 11.62, 10.28, 10.28, 8.49, 4.47, 4.02, 6.26, 8.05, 9.39, 10.28, 10.28, 10.28, 9.83, 9.83, 9.39, 9.83, 9.83, 9.83, 8.49, 7.6, 6.71, 6.71, 6.71, 11.62, 11.62, 11.18, 11.18, 11.18, 11.18, 11.18, 11.18, 10.73, 10.73, 10.73, 10.28, 10.28, 10.28, 10.28, 10.28, 10.28, 10.28, 10.28, 10.28, 10.28, 10.73, 10.28, 10.28, 10.28, 9.83, 9.83, 9.83, 9.39, 9.39, 9.39, 9.39, 9.39, 8.94, 8.94, 8.94, 8.94, 8.94, 8.94, 8.49, 8.49, 8.49, 8.49, 8.05, 8.05, 7.6, 8.05, 8.49, 8.49, 8.49, 8.94, 8.94, 9.39, 9.39, 9.83, 10.28, 10.28, 10.73, 11.18, 11.18, 11.62, 12.07, 12.52, 12.96, 12.96, 13.41, 13.41, 13.86, 14.75, 14.75, 15.2, 16.09, 16.99, 17.43, 14.3, 11.18, 10.28, 10.28, 9.39, 6.26, 4.02, 5.81, 8.05, 9.39, 10.28, 10.28, 9.83, 9.39, 8.94, 8.94, 8.94, 9.83, 9.83, 9.83, 8.49, 8.05, 7.6, 7.6, 11.62, 11.62, 11.62, 11.62, 11.62, 11.18, 11.18, 11.18, 11.18, 11.18, 10.73, 10.73, 10.73, 10.73, 10.73, 10.73, 10.73, 10.73, 10.73, 11.18, 10.73, 10.73, 10.73, 10.73, 10.28, 10.28, 10.28, 9.83, 9.83, 9.83, 9.83, 9.39, 9.39, 9.39, 9.39, 9.39, 8.94, 8.94, 8.94, 8.94, 8.94, 8.94, 8.49, 8.49, 8.05, 8.05, 8.05, 8.49, 8.49, 8.94, 8.94, 9.39, 9.39, 9.83, 9.83, 10.28, 10.28, 10.73, 11.18, 11.18, 11.62, 12.07, 12.52, 12.96, 12.96, 13.41, 13.41, 13.86, 14.3, 15.2, 15.2, 16.09, 16.99, 18.33, 15.65, 11.62, 10.73, 10.73, 9.39, 7.15, 4.92, 5.36, 7.6, 8.94, 9.83, 10.28, 9.83, 9.39, 8.94, 8.94, 8.94, 8.94, 9.83, 9.83, 9.39, 8.49, 8.05, 8.05, 12.07, 12.07, 12.07, 11.62, 11.62, 11.62, 11.62, 11.62, 11.62, 11.18, 11.18, 11.18, 11.18, 11.18, 11.18, 11.18, 11.18, 11.18, 11.18, 11.18, 11.18, 11.18, 11.18, 10.73, 10.73, 10.73, 10.28, 10.28, 10.28, 9.83, 9.83, 9.83, 9.83, 9.39, 9.39, 9.39, 9.39, 9.39, 9.39, 8.94, 8.94, 8.94, 8.94, 8.49, 8.49, 8.49, 8.49, 8.49, 8.94, 9.39, 9.39, 9.39, 9.83, 9.83, 9.83, 10.28, 10.28, 10.73, 11.18, 11.18, 11.62, 12.52, 12.52, 12.96, 12.96, 12.96, 13.41, 13.86, 14.3, 15.2, 15.65, 16.09, 16.99, 18.33, 16.99, 12.52, 11.62, 11.62, 9.83, 7.15, 5.36, 5.36, 6.71, 8.49, 9.39, 9.83, 9.83, 8.94, 8.94, 8.49, 8.94, 8.94, 9.39, 9.83, 9.83, 9.39, 8.49, 8.49, 12.07, 12.07, 12.07, 12.07, 12.07, 12.07, 12.07, 11.62, 11.62, 11.62, 11.62, 11.62, 11.18, 11.18, 11.18, 11.18, 11.62, 11.62, 11.62, 11.62, 11.62, 11.18, 11.18, 11.18, 11.18, 10.73, 10.73, 10.73, 10.28, 10.28, 10.28, 10.28, 9.83, 9.83, 9.83, 9.83, 9.39, 9.39, 9.39, 9.39, 9.39, 9.39, 9.39, 8.94, 8.94, 8.94, 8.94, 8.94, 8.94, 9.39, 9.83, 9.83, 9.83, 9.83, 10.28, 10.28, 10.73, 10.73, 11.18, 11.18, 12.07, 12.07, 12.52, 12.96, 12.96, 12.96, 13.41, 13.86, 14.3, 14.75, 15.65, 16.54, 17.43, 18.33, 17.43, 14.3, 12.52, 12.07, 10.28, 7.6, 6.26, 5.81, 6.71, 8.05, 8.94, 9.39, 9.39, 8.94, 8.49, 8.49, 8.94, 8.94, 9.39, 9.83, 9.83, 9.39, 8.94, 8.94, 12.52, 12.52, 12.52, 12.52, 12.52, 12.07, 12.07, 12.07, 12.07, 12.07, 11.62, 11.62, 11.62, 11.62, 12.07, 12.07, 12.07, 12.07, 12.07, 11.62, 11.62, 11.62, 11.62, 11.18, 11.18, 11.18, 10.73, 10.73, 10.73, 10.73, 10.28, 10.28, 10.28, 10.28, 9.83, 9.83, 9.83, 9.83, 9.83, 9.39, 9.39, 9.39, 9.39, 9.39, 8.94, 8.94, 8.94, 9.39, 9.39, 9.83, 9.83, 9.83, 9.83, 9.83, 10.28, 10.28, 10.73, 11.18, 11.18, 11.62, 12.07, 12.07, 12.52, 12.96, 12.96, 13.41, 13.41, 13.86, 14.3, 14.75, 15.65, 16.54, 17.88, 18.33, 17.43, 15.65, 13.86, 12.52, 10.73, 8.49, 6.71, 6.26, 6.26, 7.15, 8.49, 9.39, 9.39, 8.94, 8.49, 8.49, 8.49, 8.94, 9.39, 9.39, 9.39, 9.39, 8.94, 8.94, 12.52, 12.52, 12.52, 12.52, 12.52, 12.52, 12.52, 12.52, 12.07, 12.07, 12.07, 12.07, 12.07, 12.07, 12.07, 12.52, 12.52, 12.07, 12.07, 12.07, 12.07, 12.07, 11.62, 11.62, 11.62, 11.18, 11.18, 11.18, 10.73, 10.73, 10.73, 10.73, 10.73, 10.28, 10.28, 10.28, 9.83, 9.83, 9.83, 9.83, 9.83, 9.83, 9.83, 9.39, 9.39, 9.39, 9.39, 9.39, 9.83, 9.83, 9.83, 9.83, 10.28, 10.28, 10.28, 10.28, 10.73, 11.18, 11.18, 11.62, 12.07, 12.07, 12.52, 12.96, 12.96, 13.41, 13.41, 13.86, 14.3, 14.75, 15.2, 16.54, 18.33, 18.78, 17.43, 15.65, 14.75, 13.41, 11.18, 8.94, 7.15, 6.71, 6.26, 6.71, 8.05, 8.94, 8.94, 8.94, 8.49, 8.49, 8.49, 8.94, 8.94, 9.39, 9.39, 8.94, 8.94, 8.94, 12.96, 12.96, 12.96, 12.96, 12.96, 12.96, 12.96, 12.52, 12.52, 12.52, 12.52, 12.07, 12.52, 12.52, 12.52, 12.52, 12.52, 12.52, 12.52, 12.52, 12.07, 12.07, 12.07, 11.62, 11.62, 11.62, 11.18, 11.18, 11.18, 11.18, 11.18, 10.73, 10.73, 10.73, 10.73, 10.28, 10.28, 10.28, 10.28, 9.83, 9.83, 9.83, 9.83, 9.83, 9.39, 9.39, 9.39, 9.83, 9.83, 9.83, 10.28, 10.28, 10.28, 10.28, 10.28, 10.73, 10.73, 11.18, 11.62, 11.62, 12.07, 12.52, 12.52, 12.96, 12.96, 13.41, 13.41, 13.86, 13.86, 14.3, 15.2, 16.09, 17.88, 19.22, 17.88, 16.09, 15.2, 13.86, 12.07, 9.83, 8.05, 6.71, 5.81, 6.26, 7.6, 8.49, 8.94, 8.49, 8.49, 8.05, 8.05, 8.49, 8.94, 8.94, 8.94, 8.94, 8.49, 8.49, 13.41, 13.41, 13.41, 13.41, 13.41, 12.96, 12.96, 12.96, 12.96, 12.96, 12.52, 12.96, 12.96, 12.96, 12.96, 12.96, 12.96, 12.52, 12.52, 12.52, 12.52, 12.52, 12.07, 12.07, 12.07, 11.62, 11.62, 11.62, 11.18, 11.18, 11.18, 11.18, 11.18, 11.18, 10.73, 10.73, 10.28, 10.28, 10.28, 10.28, 10.28, 10.28, 10.28, 9.83, 9.83, 9.83, 9.83, 9.83, 9.83, 10.28, 10.28, 10.28, 10.28, 10.28, 10.73, 10.73, 10.73, 11.18, 11.62, 11.62, 12.07, 12.52, 12.52, 12.96, 12.96, 13.41, 13.41, 13.86, 13.86, 14.3, 15.2, 15.65, 17.43, 19.22, 19.22, 16.99, 15.65, 14.3, 12.52, 10.73, 8.94, 7.15, 5.81, 5.81, 6.71, 8.05, 8.49, 8.49, 8.05, 7.6, 7.6, 8.05, 8.49, 8.49, 8.94, 8.49, 8.49, 8.49, 13.41, 13.41, 13.41, 13.41, 13.41, 13.41, 13.41, 13.41, 13.41, 12.96, 13.41, 13.41, 13.41, 13.41, 12.96, 12.96, 12.96, 12.96, 12.96, 12.96, 12.52, 12.52, 12.52, 12.07, 12.07, 12.07, 11.62, 11.62, 11.62, 11.62, 11.62, 11.18, 11.18, 11.18, 11.18, 10.73, 10.73, 10.73, 10.28, 10.28, 10.28, 10.28, 10.28, 10.28, 10.28, 9.83, 9.83, 9.83, 10.28, 10.28, 10.28, 10.73, 10.73, 10.73, 10.73, 10.73, 11.18, 11.18, 11.62, 12.07, 12.07, 12.52, 12.52, 12.52, 12.96, 13.41, 13.41, 13.86, 13.86, 14.3, 14.75, 15.2, 16.54, 18.78, 19.67, 18.78, 16.54, 15.2, 12.96, 11.62, 9.83, 7.6, 5.81, 5.36, 6.26, 7.6, 8.05, 8.05, 7.6, 7.15, 7.15, 7.6, 8.05, 8.49, 8.49, 8.49, 8.05, 8.49, 13.86, 13.86, 13.86, 13.86, 13.86, 13.86, 13.41, 13.41, 13.41, 13.86, 13.41, 13.41, 13.41, 13.41, 13.41, 13.41, 13.41, 13.41, 12.96, 12.96, 12.96, 12.52, 12.52, 12.52, 12.07, 12.07, 12.07, 12.07, 11.62, 11.62, 11.62, 11.62, 11.62, 11.62, 11.18, 11.18, 10.73, 10.73, 10.73, 10.73, 10.28, 10.28, 10.28, 10.28, 10.28, 10.28, 10.28, 10.28, 10.28, 10.28, 10.73, 10.73, 10.73, 10.73, 10.73, 11.18, 11.18, 11.62, 11.62, 12.07, 12.07, 12.52, 12.52, 12.52, 12.96, 12.96, 13.41, 13.86, 13.86, 14.3, 14.75, 15.2, 15.65, 17.43, 19.22, 20.12, 18.33, 16.09, 14.3, 12.52, 10.73, 8.49, 6.26, 5.36, 6.26, 7.15, 8.05, 7.6, 7.15, 6.71, 7.15, 7.6, 8.05, 8.05, 8.05, 8.05, 8.05, 8.05, 13.86, 13.86, 13.86, 13.86, 13.86, 13.86, 13.86, 13.86, 13.86, 13.86, 13.86, 13.86, 13.86, 13.86, 13.86, 13.86, 13.86, 13.41, 13.41, 13.41, 12.96, 12.96, 12.96, 12.52, 12.52, 12.52, 12.07, 12.07, 12.07, 12.07, 12.07, 11.62, 11.62, 11.62, 11.62, 11.18, 11.18, 11.18, 10.73, 10.73, 10.73, 10.28, 10.28, 10.28, 10.73, 10.73, 10.73, 10.73, 10.73, 10.73, 10.73, 10.73, 10.73, 10.73, 11.18, 11.18, 11.62, 11.62, 11.62, 12.07, 12.07, 12.52, 12.52, 12.52, 12.96, 12.96, 13.41, 13.86, 13.86, 13.86, 14.3, 14.75, 15.65, 16.54, 17.88, 19.67, 20.12, 17.88, 15.65, 14.3, 12.52, 9.83, 6.71, 5.36, 5.36, 6.71, 7.15, 7.15, 6.71, 6.71, 6.71, 7.15, 7.6, 7.6, 8.05, 7.6, 7.6, 7.6, 14.3, 14.3, 14.3, 14.3, 14.3, 14.3, 13.86, 14.3, 14.3, 14.3, 13.86, 13.86, 13.86, 13.86, 13.86, 13.86, 13.86, 13.86, 13.86, 13.41, 13.41, 12.96, 12.96, 12.96, 12.52, 12.52, 12.52, 12.52, 12.07, 12.07, 12.07, 12.07, 12.07, 11.62, 11.62, 11.62, 11.18, 11.18, 11.18, 10.73, 10.73, 10.73, 10.73, 10.73, 10.73, 10.73, 10.73, 10.73, 10.73, 10.73, 10.73, 10.73, 10.73, 11.18, 11.18, 11.18, 11.62, 11.62, 11.62, 12.07, 12.07, 12.52, 12.52, 12.52, 12.52, 12.96, 12.96, 13.41, 13.86, 13.86, 14.3, 14.75, 15.2, 16.09, 17.43, 18.78, 20.12, 19.67, 17.43, 15.65, 14.3, 11.18, 7.6, 5.36, 4.92, 5.81, 6.71, 7.15, 6.71, 6.26, 6.26, 6.71, 7.15, 7.6, 7.6, 7.6, 7.6, 7.6, 14.3, 14.3, 14.75, 14.3, 14.3, 14.3, 14.3, 14.3, 14.3, 14.3, 14.3, 14.3, 14.3, 14.3, 14.3, 14.3, 13.86, 13.86, 13.86, 13.41, 13.41, 13.41, 12.96, 12.96, 12.96, 12.52, 12.52, 12.52, 12.52, 12.52, 12.52, 12.07, 12.07, 12.07, 11.62, 11.62, 11.62, 11.18, 11.18, 11.18, 10.73, 10.73, 10.73, 10.73, 10.73, 10.73, 10.73, 10.73, 10.73, 10.73, 11.18, 11.18, 11.18, 11.18, 11.18, 11.62, 11.62, 11.62, 11.62, 12.07, 12.07, 12.52, 12.52, 12.52, 12.52, 12.96, 12.96, 13.41, 13.86, 13.86, 14.3, 14.75, 15.2, 16.09, 16.99, 17.88, 19.22, 19.67, 19.22, 17.43, 16.09, 12.96, 8.94, 6.26, 4.92, 5.36, 6.26, 6.71, 6.71, 6.26, 6.26, 7.15, 7.15, 7.6, 7.6, 7.6, 7.6, 7.6, 14.75, 14.75, 14.75, 14.75, 14.75, 14.75, 14.75, 14.75, 14.75, 14.3, 14.3, 14.3, 14.3, 14.3, 14.3, 14.3, 14.3, 14.3, 13.86, 13.86, 13.41, 13.41, 13.41, 12.96, 12.96, 12.96, 12.96, 12.96, 12.52, 12.52, 12.52, 12.52, 12.07, 12.07, 12.07, 11.62, 11.62, 11.62, 11.18, 11.18, 11.18, 11.18, 11.18, 11.18, 11.18, 11.18, 11.18, 11.18, 11.18, 11.18, 11.18, 11.18, 11.18, 11.18, 11.18, 11.62, 11.62, 11.62, 12.07, 12.07, 12.07, 12.52, 12.52, 12.52, 12.52, 12.96, 12.96, 13.41, 13.41, 13.86, 14.3, 14.75, 15.2, 15.65, 16.54, 17.43, 18.33, 19.22, 19.67, 19.22, 17.88, 14.75, 10.28, 6.71, 4.92, 4.92, 5.81, 6.71, 6.71, 6.26, 6.26, 6.71, 7.15, 7.6, 7.6, 7.15, 7.15, 7.15, 15.2, 15.2, 15.2, 14.75, 15.2, 15.2, 14.75, 14.75, 14.75, 14.75, 14.75, 14.75, 14.3, 14.3, 14.3, 14.3, 14.3, 14.3, 14.3, 13.86, 13.86, 13.41, 13.41, 13.41, 13.41, 12.96, 12.96, 12.96, 12.96, 12.96, 12.52, 12.52, 12.52, 12.07, 12.07, 12.07, 11.62, 11.62, 11.62, 11.18, 11.18, 11.18, 11.18, 11.18, 11.18, 11.18, 11.18, 11.18, 11.18, 11.18, 11.18, 11.18, 11.18, 11.18, 11.62, 11.62, 11.62, 11.62, 12.07, 12.07, 12.07, 12.52, 12.52, 12.52, 12.52, 12.52, 12.96, 12.96, 13.41, 13.41, 14.3, 14.75, 15.2, 15.65, 16.54, 16.99, 17.88, 18.78, 19.22, 19.22, 19.22, 16.99, 12.07, 8.05, 5.36, 4.47, 5.36, 6.71, 6.71, 5.81, 6.26, 6.71, 7.15, 7.6, 7.15, 7.15, 7.15, 7.15, 15.2, 15.2, 15.2, 15.2, 15.2, 15.2, 15.2, 15.2, 15.2, 14.75, 14.75, 14.75, 14.75, 14.75, 14.75, 14.75, 14.75, 14.3, 14.3, 14.3, 13.86, 13.86, 13.86, 13.41, 13.41, 13.41, 13.41, 12.96, 12.96, 12.96, 12.96, 12.52, 12.52, 12.52, 12.07, 12.07, 12.07, 11.62, 11.62, 11.62, 11.62, 11.62, 11.62, 11.62, 11.18, 11.18, 11.18, 11.18, 11.18, 11.18, 11.18, 11.18, 11.18, 11.62, 11.62, 11.62, 11.62, 11.62, 12.07, 12.07, 12.07, 12.52, 12.52, 12.52, 12.52, 12.52, 12.96, 12.96, 13.41, 13.41, 13.86, 14.75, 15.2, 15.65, 16.09, 16.99, 17.43, 18.33, 19.22, 19.67, 19.67, 18.78, 14.75, 9.39, 5.36, 4.47, 5.36, 6.71, 5.81, 5.81, 6.26, 6.71, 7.15, 7.15, 7.15, 7.15, 7.15, 7.15, 15.2, 15.2, 15.65, 15.65, 15.65, 15.2, 15.2, 15.2, 15.2, 15.2, 15.2, 14.75, 14.75, 14.75, 14.75, 14.75, 14.75, 14.75, 14.3, 14.3, 14.3, 13.86, 13.86, 13.86, 13.41, 13.41, 13.41, 13.41, 13.41, 12.96, 12.96, 12.96, 12.52, 12.52, 12.52, 12.07, 12.07, 12.07, 11.62, 11.62, 11.62, 11.62, 11.62, 11.62, 11.62, 11.62, 11.18, 11.18, 11.18, 11.18, 11.18, 11.62, 11.62, 11.62, 11.62, 11.62, 11.62, 12.07, 12.07, 12.07, 12.07, 12.52, 12.52, 12.52, 12.52, 12.96, 12.96, 12.96, 13.41, 13.41, 13.86, 14.3, 14.75, 15.2, 16.09, 16.54, 16.99, 17.88, 18.78, 19.22, 19.67, 19.67, 17.43, 12.07, 5.81, 4.47, 6.71, 6.26, 5.81, 5.81, 6.26, 6.71, 7.15, 7.15, 6.71, 6.71, 6.71, 6.71, 15.65, 15.65, 15.65, 15.65, 15.65, 15.65, 15.65, 15.2, 15.2, 15.2, 15.2, 15.2, 15.2, 15.2, 15.2, 14.75, 14.75, 14.75, 14.75, 14.3, 14.3, 14.3, 13.86, 13.86, 13.86, 13.86, 13.41, 13.41, 13.41, 13.41, 12.96, 12.96, 12.96, 12.52, 12.52, 12.52, 12.07, 12.07, 12.07, 12.07, 12.07, 12.07, 11.62, 11.62, 11.62, 11.62, 11.62, 11.62, 11.62, 11.62, 11.62, 11.62, 11.62, 11.62, 11.62, 11.62, 11.62, 12.07, 12.07, 12.07, 12.07, 12.52, 12.52, 12.52, 12.96, 12.96, 12.96, 12.96, 13.41, 13.41, 13.86, 13.86, 14.3, 15.2, 15.65, 16.09, 16.99, 17.43, 18.33, 19.22, 19.67, 19.67, 19.22, 15.65, 8.49, 6.26, 6.26, 6.26, 5.81, 5.81, 6.26, 6.71, 6.71, 6.71, 6.71, 6.71, 6.71, 6.71, 15.65, 16.09, 16.09, 15.65, 15.65, 15.65, 15.65, 15.65, 15.65, 15.65, 15.2, 15.2, 15.2, 15.2, 15.2, 15.2, 15.2, 14.75, 14.75, 14.75, 14.3, 14.3, 14.3, 13.86, 13.86, 13.86, 13.86, 13.86, 13.41, 13.41, 13.41, 13.41, 12.96, 12.96, 12.52, 12.52, 12.52, 12.52, 12.07, 12.07, 12.07, 12.07, 12.07, 12.07, 11.62, 11.62, 11.62, 11.62, 11.62, 11.62, 11.62, 11.62, 11.62, 11.62, 11.62, 11.62, 12.07, 12.07, 12.07, 12.07, 12.52, 12.52, 12.52, 12.52, 12.96, 12.96, 12.96, 13.41, 13.41, 13.86, 14.3, 14.3, 14.3, 14.75, 15.2, 16.09, 16.54, 17.43, 17.88, 18.78, 19.67, 20.12, 20.12, 18.33, 6.71, 6.26, 6.26, 5.81, 5.81, 6.26, 6.26, 6.26, 6.26, 6.71, 6.71, 6.71, 6.71, 6.71, 16.09, 16.09, 16.09, 16.09, 16.09, 15.65, 15.65, 15.65, 15.65, 15.65, 15.65, 15.65, 15.65, 15.2, 15.2, 15.2, 15.2, 15.2, 14.75, 14.75, 14.75, 14.75, 14.3, 14.3, 14.3, 13.86, 13.86, 13.86, 13.86, 13.41, 13.41, 13.41, 13.41, 12.96, 12.96, 12.52, 12.52, 12.52, 12.52, 12.52, 12.07, 12.07, 12.07, 12.07, 12.07, 11.62, 11.62, 11.62, 11.62, 11.62, 11.62, 11.62, 11.62, 11.62, 11.62, 11.62, 12.07, 12.07, 12.07, 12.07, 12.52, 12.52, 12.52, 12.52, 12.96, 12.96, 12.96, 13.41, 13.41, 13.86, 14.3, 14.3, 14.75, 14.75, 14.75, 15.65, 16.54, 16.99, 17.43, 18.33, 19.22, 20.12, 21.01, 13.86, 8.05, 6.26, 5.81, 5.81, 6.26, 6.26, 6.26, 6.26, 6.26, 6.26, 6.26, 6.26, 6.26, 6.26, 16.54, 16.54, 16.09, 16.09, 16.09, 16.09, 16.09, 16.09, 15.65, 15.65, 15.65, 15.65, 15.65, 15.65, 15.65, 15.2, 15.2, 15.2, 15.2, 14.75, 14.75, 14.75, 14.3, 14.3, 14.3, 14.3, 14.3, 13.86, 13.86, 13.86, 13.86, 13.41, 13.41, 13.41, 12.96, 12.96, 12.96, 12.52, 12.52, 12.52, 12.52, 12.52, 12.07, 12.07, 12.07, 12.07, 11.62, 11.62, 11.62, 11.62, 11.62, 11.62, 11.62, 11.62, 11.62, 12.07, 12.07, 12.07, 12.07, 12.07, 12.52, 12.52, 12.52, 12.52, 12.96, 12.96, 12.96, 13.41, 13.41, 13.86, 14.3, 14.75, 14.75, 14.75, 14.75, 15.2, 16.09, 16.54, 17.43, 17.88, 18.78, 20.12, 20.56, 15.2, 9.39, 6.26, 5.81, 6.26, 6.26, 6.71, 6.26, 5.81, 5.81, 5.81, 5.81, 5.81, 5.81, 5.81, 16.54, 16.54, 16.54, 16.09, 16.09, 16.09, 16.09, 16.09, 16.09, 16.09, 16.09, 15.65, 15.65, 15.65, 15.65, 15.65, 15.2, 15.2, 15.2, 15.2, 14.75, 14.75, 14.75, 14.3, 14.3, 14.3, 14.3, 14.3, 14.3, 13.86, 13.86, 13.86, 13.41, 13.41, 12.96, 12.96, 12.96, 12.96, 12.52, 12.52, 12.52, 12.52, 12.52, 12.07, 12.07, 12.07, 12.07, 12.07, 12.07, 11.62, 11.62, 11.62, 11.62, 11.62, 12.07, 12.07, 12.07, 12.07, 12.07, 12.07, 12.52, 12.52, 12.52, 12.52, 12.96, 12.96, 13.41, 13.41, 13.41, 13.86, 13.86, 14.3, 14.75, 14.75, 14.75, 15.2, 15.65, 16.09, 16.99, 17.88, 18.33, 19.67, 21.46, 17.43, 10.28, 6.71, 5.81, 6.26, 6.71, 6.71, 6.26, 5.81, 5.81, 5.36, 5.81, 5.81, 5.81, 5.81, 16.54, 16.54, 16.54, 16.54, 16.54, 16.09, 16.09, 16.09, 16.09, 16.09, 16.09, 16.09, 16.09, 15.65, 15.65, 15.65, 15.65, 15.65, 15.2, 15.2, 15.2, 14.75, 14.75, 14.75, 14.75, 14.75, 14.3, 14.3, 14.3, 14.3, 13.86, 13.86, 13.86, 13.41, 13.41, 12.96, 12.96, 12.96, 12.96, 12.52, 12.52, 12.52, 12.52, 12.52, 12.07, 12.07, 12.07, 12.07, 12.07, 12.07, 12.07, 12.07, 12.07, 12.07, 12.07, 12.07, 12.07, 12.07, 12.07, 12.52, 12.52, 12.52, 12.52, 12.52, 12.96, 12.96, 13.41, 13.41, 13.41, 13.41, 13.86, 14.3, 14.3, 14.75, 14.75, 14.75, 15.2, 15.65, 16.54, 17.43, 18.33, 20.56, 21.9, 20.12, 12.52, 7.15, 6.71, 7.15, 7.15, 6.71, 6.26, 6.26, 5.36, 5.36, 5.36, 5.36, 5.36, 5.36, 16.54, 16.54, 16.54, 16.54, 16.54, 16.54, 16.54, 16.09, 16.09, 16.09, 16.09, 16.09, 16.09, 16.09, 15.65, 15.65, 15.65, 15.65, 15.65, 15.2, 15.2, 15.2, 15.2, 14.75, 14.75, 14.75, 14.75, 14.75, 14.3, 14.3, 14.3, 13.86, 13.86, 13.41, 13.41, 13.41, 12.96, 12.96, 12.96, 12.96, 12.52, 12.52, 12.52, 12.52, 12.52, 12.07, 12.07, 12.07, 12.07, 12.07, 12.07, 12.07, 12.07, 12.07, 12.07, 12.07, 12.07, 12.07, 12.07, 12.52, 12.52, 12.52, 12.52, 12.96, 12.96, 12.96, 13.41, 13.41, 13.41, 13.41, 13.86, 14.3, 14.3, 14.75, 14.75, 14.75, 15.2, 15.2, 16.09, 16.99, 18.78, 20.12, 21.46, 21.46, 16.09, 8.94, 7.6, 7.6, 7.6, 6.71, 6.26, 6.26, 5.36, 4.92, 4.92, 4.92, 4.92, 4.92, 16.99, 16.99, 16.54, 16.54, 16.54, 16.54, 16.54, 16.54, 16.54, 16.54, 16.09, 16.09, 16.09, 16.09, 16.09, 16.09, 15.65, 15.65, 15.65, 15.65, 15.2, 15.2, 15.2, 14.75, 14.75, 14.75, 14.75, 14.75, 14.3, 14.3, 14.3, 13.86, 13.86, 13.86, 13.41, 13.41, 13.41, 12.96, 12.96, 12.96, 12.96, 12.52, 12.52, 12.52, 12.52, 12.52, 12.07, 12.07, 12.07, 12.07, 12.07, 12.07, 12.07, 12.07, 12.07, 12.07, 12.07, 12.07, 12.07, 12.52, 12.52, 12.52, 12.96, 12.96, 12.96, 12.96, 13.41, 13.41, 13.41, 13.41, 13.86, 14.3, 14.3, 14.3, 14.75, 14.75, 15.2, 15.2, 15.65, 16.99, 18.33, 19.67, 21.01, 21.9, 18.78, 12.52, 8.94, 8.49, 8.05, 6.71, 6.26, 5.81, 5.36, 4.92, 4.47, 4.47, 4.47, 4.47, 16.99, 16.99, 16.99, 16.54, 16.54, 16.54, 16.54, 16.54, 16.54, 16.54, 16.54, 16.09, 16.09, 16.09, 16.09, 16.09, 16.09, 15.65, 15.65, 15.65, 15.65, 15.2, 15.2, 15.2, 15.2, 14.75, 14.75, 14.75, 14.75, 14.3, 14.3, 14.3, 13.86, 13.86, 13.41, 13.41, 13.41, 13.41, 12.96, 12.96, 12.96, 12.96, 12.52, 12.52, 12.52, 12.52, 12.07, 12.07, 12.07, 12.07, 12.07, 12.07, 12.07, 12.07, 12.07, 12.07, 12.07, 12.07, 12.52, 12.52, 12.52, 12.52, 12.96, 12.96, 12.96, 12.96, 13.41, 13.41, 13.41, 13.41, 13.86, 13.86, 14.3, 14.3, 14.75, 14.75, 15.2, 15.2, 16.09, 16.99, 17.88, 19.22, 21.01, 21.9, 20.12, 15.2, 11.18, 9.83, 8.49, 7.15, 6.26, 5.81, 5.36, 4.47, 4.47, 4.47, 4.47, 4.47, 16.99, 16.99, 16.99, 16.99, 16.54, 16.54, 16.54, 16.54, 16.54, 16.54, 16.54, 16.54, 16.54, 16.09, 16.09, 16.09, 16.09, 15.65, 15.65, 15.65, 15.65, 15.65, 15.2, 15.2, 15.2, 15.2, 14.75, 14.75, 14.75, 14.3, 14.3, 14.3, 13.86, 13.86, 13.86, 13.41, 13.41, 13.41, 13.41, 12.96, 12.96, 12.96, 12.96, 12.52, 12.52, 12.52, 12.52, 12.07, 12.07, 12.07, 12.07, 12.07, 12.07, 12.07, 12.07, 12.07, 12.07, 12.52, 12.52, 12.52, 12.52, 12.52, 12.96, 12.96, 12.96, 12.96, 12.96, 13.41, 13.41, 13.41, 13.86, 13.86, 14.3, 14.3, 14.3, 14.75, 15.2, 15.65, 16.09, 16.54, 17.88, 18.78, 20.12, 21.46, 20.56, 16.99, 12.96, 11.18, 9.39, 8.05, 6.71, 5.36, 4.92, 4.02, 4.02, 4.02, 4.02, 4.02, 16.99, 16.99, 16.99, 16.99, 16.99, 16.99, 16.99, 16.54, 16.54, 16.54, 16.54, 16.54, 16.54, 16.54, 16.09, 16.09, 16.09, 16.09, 15.65, 15.65, 15.65, 15.65, 15.2, 15.2, 15.2, 15.2, 14.75, 14.75, 14.75, 14.75, 14.3, 14.3, 13.86, 13.86, 13.86, 13.41, 13.41, 13.41, 13.41, 13.41, 12.96, 12.96, 12.96, 12.52, 12.52, 12.52, 12.52, 12.07, 12.07, 12.07, 12.07, 12.07, 12.07, 12.07, 12.07, 12.07, 12.07, 12.52, 12.52, 12.52, 12.52, 12.52, 12.96, 12.96, 12.96, 12.96, 12.96, 13.41, 13.41, 13.41, 13.86, 13.86, 13.86, 14.3, 14.3, 14.75, 14.75, 15.65, 16.09, 16.54, 17.43, 18.78, 19.67, 20.56, 20.56, 18.33, 15.2, 12.52, 10.73, 8.94, 7.15, 5.36, 4.47, 3.58, 3.58, 4.02, 4.02, 4.02, 16.99, 16.99, 16.99, 16.99, 16.99, 16.99, 16.99, 16.54, 16.54, 16.54, 16.54, 16.54, 16.54, 16.54, 16.09, 16.09, 16.09, 16.09, 15.65, 15.65, 15.65, 15.65, 15.2, 15.2, 15.2, 15.2, 14.75, 14.75, 14.75, 14.75, 14.3, 14.3, 13.86, 13.86, 13.86, 13.41, 13.41, 13.41, 13.41, 13.41, 12.96, 12.96, 12.96, 12.52, 12.52, 12.52, 12.52, 12.07, 12.07, 12.07, 12.07, 12.07, 12.07, 12.07, 12.07, 12.07, 12.07, 12.52, 12.52, 12.52, 12.52, 12.52, 12.96, 12.96, 12.96, 12.96, 12.96, 13.41, 13.41, 13.41, 13.86, 13.86, 13.86, 14.3, 14.3, 14.75, 15.2, 15.65, 16.09, 16.54, 17.43, 18.33, 19.22, 20.12, 20.12, 19.22, 16.99, 14.3, 12.07, 9.83, 7.6, 5.81, 4.47, 3.58, 3.13, 3.58, 3.58, 3.58]}, {"header": {"parameterCategory": 1, "parameterNumber": 3, "dx": 0.06612293990616946, "dy": 0.0552356325346848, "nx": 98, "ny": 59, "la1": 35.046912555036876, "la2": 31.78801023549047, "lo1": -121.43107172385933, "lo2": -114.95102361305473, "refTime": "2026041109"}, "data": [4.92, 5.36, 5.36, 5.36, 5.81, 5.81, 6.26, 6.26, 6.26, 6.71, 6.71, 6.71, 7.15, 7.15, 7.6, 7.6, 8.05, 8.05, 8.49, 8.49, 8.49, 8.49, 8.05, 7.6, 7.6, 7.6, 8.05, 8.05, 8.05, 8.49, 8.94, 9.39, 8.94, 8.94, 8.49, 8.05, 8.49, 8.94, 9.39, 9.83, 9.39, 9.39, 9.39, 8.94, 8.49, 8.05, 7.6, 7.15, 7.15, 7.6, 8.49, 9.39, 9.83, 10.28, 10.73, 11.18, 11.18, 11.18, 11.18, 10.73, 10.28, 9.83, 9.39, 8.94, 8.94, 9.39, 9.83, 10.28, 10.73, 10.73, 10.73, 10.73, 11.18, 11.62, 11.62, 12.07, 11.62, 11.18, 9.83, 8.05, 6.71, 5.81, 6.26, 7.15, 8.49, 9.39, 10.28, 11.18, 11.62, 12.52, 12.96, 13.86, 14.75, 15.65, 16.09, 16.99, 16.99, 16.99, 4.92, 4.92, 5.36, 5.36, 5.36, 5.36, 5.81, 5.81, 6.26, 6.26, 6.26, 6.71, 6.71, 7.15, 7.15, 7.6, 7.6, 8.05, 8.49, 8.49, 8.94, 8.94, 8.49, 8.05, 7.6, 7.6, 7.6, 8.05, 8.05, 8.05, 8.49, 8.49, 8.94, 8.94, 8.49, 8.05, 8.49, 8.94, 9.83, 10.28, 9.83, 9.39, 9.39, 8.94, 8.05, 7.6, 7.15, 7.15, 7.15, 8.05, 8.94, 9.39, 10.28, 10.73, 11.18, 11.62, 11.62, 11.62, 11.18, 11.18, 10.73, 10.28, 9.83, 9.39, 8.94, 9.39, 9.39, 9.83, 10.28, 10.28, 10.28, 9.83, 9.83, 10.28, 10.73, 11.18, 10.73, 11.18, 9.83, 8.05, 6.71, 5.81, 6.26, 7.15, 8.49, 9.39, 10.28, 11.18, 11.62, 12.52, 12.96, 13.86, 14.75, 15.65, 16.09, 16.99, 16.99, 16.99, 4.92, 4.92, 4.92, 5.36, 5.36, 5.36, 5.36, 5.81, 5.81, 6.26, 6.26, 6.26, 6.71, 6.71, 7.15, 7.15, 7.6, 8.05, 8.49, 8.49, 8.94, 8.94, 9.39, 8.94, 8.49, 8.05, 7.6, 7.6, 7.6, 8.05, 8.05, 8.49, 8.94, 8.94, 8.94, 8.49, 8.94, 9.39, 9.83, 10.28, 10.28, 9.39, 8.94, 8.49, 7.6, 7.15, 6.71, 6.71, 7.6, 8.49, 8.94, 9.83, 10.28, 11.18, 11.62, 12.07, 12.07, 12.07, 11.62, 11.18, 11.18, 10.73, 10.28, 9.83, 9.39, 9.39, 9.39, 9.83, 10.28, 9.83, 9.39, 8.94, 8.49, 8.49, 9.39, 9.83, 9.83, 9.83, 8.49, 6.71, 5.36, 4.92, 5.81, 7.15, 8.05, 9.39, 10.28, 10.73, 11.18, 12.07, 12.96, 13.86, 14.75, 15.65, 16.54, 16.99, 16.99, 16.99, 4.92, 4.92, 4.92, 4.92, 4.92, 5.36, 5.36, 5.36, 5.81, 5.81, 6.26, 6.26, 6.26, 6.71, 6.71, 7.15, 7.15, 7.6, 8.05, 8.49, 8.49, 8.94, 8.94, 9.39, 8.94, 8.49, 8.05, 7.6, 7.6, 8.05, 8.49, 8.94, 9.39, 9.39, 9.39, 8.94, 8.94, 9.39, 9.83, 10.28, 10.28, 10.28, 9.83, 8.49, 7.15, 6.26, 6.26, 6.71, 7.6, 8.49, 9.39, 10.28, 10.73, 11.62, 12.07, 12.52, 12.52, 12.07, 11.62, 11.62, 11.18, 10.73, 10.73, 10.28, 9.83, 9.39, 9.39, 9.83, 10.28, 9.83, 8.94, 8.05, 7.15, 7.15, 8.05, 8.49, 8.49, 8.05, 7.6, 5.81, 4.47, 4.92, 5.81, 7.15, 8.05, 8.94, 9.83, 10.28, 11.18, 12.07, 12.96, 13.86, 14.75, 15.65, 16.54, 16.99, 16.99, 16.99, 4.92, 4.92, 4.92, 4.92, 4.92, 4.92, 5.36, 5.36, 5.36, 5.81, 5.81, 6.26, 6.26, 6.71, 6.71, 6.71, 7.15, 7.6, 8.05, 8.49, 8.49, 8.94, 8.94, 8.94, 9.39, 9.39, 8.94, 8.49, 8.05, 8.49, 8.94, 9.39, 9.83, 9.83, 9.83, 10.28, 10.73, 10.73, 10.28, 10.28, 10.73, 11.62, 11.18, 9.39, 7.15, 5.36, 5.36, 6.26, 8.05, 8.94, 9.83, 10.73, 11.18, 11.62, 12.52, 12.52, 12.52, 12.07, 12.07, 11.62, 11.18, 11.18, 11.18, 11.18, 10.73, 9.83, 9.39, 9.83, 10.73, 10.28, 9.83, 8.94, 8.05, 7.6, 8.05, 8.05, 8.05, 7.6, 6.26, 5.36, 4.47, 4.92, 5.81, 7.15, 8.05, 8.94, 9.39, 10.28, 11.18, 12.07, 13.41, 13.86, 14.75, 15.65, 16.09, 16.54, 16.99, 16.99, 4.47, 4.92, 4.92, 4.92, 4.92, 4.92, 4.92, 4.92, 5.36, 5.36, 5.81, 5.81, 6.26, 6.26, 6.71, 6.71, 7.15, 7.15, 7.6, 8.05, 8.49, 8.94, 8.94, 9.39, 9.39, 9.39, 9.83, 9.83, 9.83, 9.39, 9.83, 9.83, 10.28, 10.73, 10.73, 11.18, 12.07, 12.52, 11.62, 11.18, 11.18, 11.18, 11.18, 9.83, 7.15, 4.92, 5.36, 7.15, 8.94, 9.83, 10.28, 11.18, 11.62, 12.07, 12.52, 12.52, 12.52, 12.07, 11.62, 11.62, 11.62, 11.62, 11.62, 11.62, 11.62, 10.73, 10.28, 10.28, 10.73, 11.18, 11.62, 11.18, 10.73, 10.28, 9.83, 8.94, 8.05, 7.6, 6.71, 5.81, 4.92, 5.36, 6.26, 7.15, 8.05, 8.49, 8.94, 9.83, 11.18, 12.52, 12.96, 13.41, 14.3, 15.2, 16.09, 16.54, 16.54, 16.54, 4.47, 4.47, 4.92, 4.92, 4.92, 4.92, 4.92, 4.92, 4.92, 5.36, 5.36, 5.81, 5.81, 6.26, 6.26, 6.71, 6.71, 7.15, 7.6, 8.05, 8.49, 8.49, 8.94, 8.94, 9.39, 9.83, 9.83, 10.28, 10.28, 10.28, 10.28, 10.28, 10.73, 10.73, 11.18, 11.18, 12.07, 12.96, 12.52, 11.62, 11.62, 11.62, 11.62, 9.83, 7.15, 5.36, 6.26, 8.49, 9.83, 10.28, 10.73, 11.18, 11.62, 12.07, 12.52, 12.52, 12.52, 12.07, 12.07, 11.62, 11.62, 12.07, 12.52, 12.52, 12.52, 12.07, 11.18, 10.73, 10.73, 11.18, 12.07, 12.96, 12.96, 12.52, 12.07, 10.28, 8.94, 8.49, 7.6, 7.15, 5.81, 6.26, 6.71, 7.6, 8.05, 8.49, 9.39, 9.83, 11.18, 12.07, 12.96, 13.86, 14.3, 15.2, 16.09, 16.54, 16.54, 16.54, 4.47, 4.47, 4.47, 4.92, 4.92, 4.92, 4.92, 4.92, 4.92, 5.36, 5.36, 5.81, 5.81, 5.81, 6.26, 6.71, 6.71, 7.15, 7.15, 7.6, 8.05, 8.49, 8.49, 8.94, 8.94, 9.39, 9.39, 9.39, 9.83, 10.28, 10.28, 10.28, 10.73, 10.73, 10.73, 11.18, 11.62, 12.52, 12.96, 12.07, 12.07, 12.52, 12.07, 10.28, 7.6, 6.26, 8.05, 10.28, 10.73, 10.73, 10.73, 11.18, 11.62, 12.07, 12.52, 12.52, 12.07, 12.07, 12.07, 12.07, 12.52, 12.52, 12.96, 12.96, 12.96, 12.96, 12.07, 11.62, 10.73, 10.73, 11.62, 12.52, 12.96, 12.96, 12.07, 10.73, 9.39, 8.49, 8.05, 8.49, 8.94, 7.6, 7.6, 8.05, 8.05, 8.49, 8.94, 9.39, 10.73, 12.07, 13.41, 13.86, 14.3, 15.2, 16.09, 16.54, 16.54, 16.99, 4.47, 4.47, 4.47, 4.47, 4.92, 4.92, 4.92, 4.92, 4.92, 4.92, 5.36, 5.36, 5.81, 5.81, 6.26, 6.26, 6.71, 6.71, 7.15, 7.6, 7.6, 8.05, 8.49, 8.49, 8.94, 8.94, 8.94, 9.39, 9.39, 9.39, 9.83, 9.83, 10.28, 10.28, 10.73, 11.18, 11.62, 12.07, 12.52, 12.07, 11.62, 12.07, 11.62, 10.73, 8.49, 8.49, 10.73, 11.62, 11.18, 10.73, 10.28, 10.73, 11.62, 12.07, 12.07, 12.07, 12.07, 12.52, 12.52, 12.96, 12.96, 13.41, 13.41, 13.41, 13.41, 13.41, 12.96, 11.62, 10.73, 9.83, 10.28, 10.73, 11.18, 11.62, 11.18, 10.28, 8.94, 8.05, 8.05, 8.94, 9.39, 8.94, 8.94, 8.49, 8.49, 8.49, 8.94, 9.39, 10.28, 11.62, 12.96, 13.86, 14.3, 14.75, 15.65, 16.54, 16.54, 16.99, 4.47, 4.47, 4.47, 4.47, 4.47, 4.47, 4.47, 4.92, 4.92, 4.92, 5.36, 5.36, 5.81, 5.81, 6.26, 6.26, 6.71, 6.71, 7.15, 7.15, 7.6, 8.05, 8.05, 8.49, 8.49, 8.49, 8.94, 8.94, 8.94, 8.94, 9.39, 9.39, 9.39, 9.83, 10.28, 10.73, 11.18, 11.62, 12.07, 11.62, 11.18, 10.73, 10.28, 10.28, 8.94, 10.28, 11.62, 11.18, 10.28, 10.28, 10.28, 11.18, 11.62, 12.07, 12.07, 12.07, 12.52, 12.96, 12.96, 13.41, 13.86, 13.86, 13.86, 13.86, 13.86, 13.41, 12.96, 11.62, 9.83, 8.49, 8.05, 8.49, 9.39, 9.83, 9.39, 8.94, 8.49, 8.05, 8.05, 8.49, 8.94, 9.39, 9.39, 9.39, 8.94, 8.49, 8.94, 9.39, 10.28, 11.62, 12.96, 13.86, 14.3, 14.75, 15.65, 16.09, 16.54, 16.54, 4.47, 4.47, 4.47, 4.47, 4.47, 4.47, 4.47, 4.47, 4.92, 4.92, 4.92, 5.36, 5.81, 5.81, 6.26, 6.26, 6.71, 6.71, 7.15, 7.6, 7.6, 8.05, 8.05, 8.49, 8.49, 8.49, 8.49, 8.49, 8.49, 8.49, 8.94, 9.39, 9.39, 9.83, 9.83, 10.28, 10.28, 11.18, 11.62, 11.62, 10.73, 9.83, 8.94, 8.49, 8.49, 9.83, 9.83, 9.39, 8.94, 9.83, 10.73, 12.07, 12.52, 12.52, 12.52, 12.96, 13.41, 13.86, 13.86, 14.3, 14.3, 14.75, 14.75, 14.3, 14.3, 13.86, 12.96, 11.18, 9.39, 7.6, 6.71, 6.71, 7.6, 8.05, 8.49, 8.49, 8.94, 8.49, 8.94, 8.94, 8.94, 9.83, 10.28, 9.83, 9.83, 9.39, 9.39, 9.39, 9.83, 11.18, 12.52, 13.41, 14.3, 15.2, 15.65, 16.09, 16.54, 16.54, 4.02, 4.02, 4.47, 4.47, 4.47, 4.47, 4.47, 4.47, 4.47, 4.92, 4.92, 5.36, 5.36, 5.81, 5.81, 6.26, 6.71, 6.71, 7.15, 7.6, 7.6, 8.05, 8.05, 8.49, 8.49, 8.49, 8.94, 8.94, 8.94, 8.94, 8.94, 8.94, 8.94, 9.39, 9.83, 10.28, 10.73, 11.18, 11.62, 11.62, 10.73, 9.39, 8.49, 6.71, 6.26, 7.15, 8.49, 8.94, 9.39, 10.73, 12.07, 13.41, 14.75, 15.2, 15.2, 15.65, 16.09, 15.2, 15.2, 14.75, 15.2, 15.65, 15.2, 14.75, 14.75, 14.3, 13.41, 11.62, 9.39, 7.6, 6.26, 5.81, 6.71, 7.6, 8.94, 8.94, 9.39, 9.39, 9.39, 9.83, 9.83, 10.28, 10.28, 10.28, 10.73, 10.28, 9.83, 9.83, 9.83, 10.73, 11.62, 12.96, 13.86, 14.75, 15.65, 16.09, 16.09, 16.09, 4.02, 4.02, 4.02, 4.02, 4.02, 4.47, 4.47, 4.47, 4.47, 4.92, 4.92, 4.92, 5.36, 5.81, 5.81, 6.26, 6.26, 6.71, 7.15, 7.15, 7.6, 7.6, 8.05, 8.05, 8.49, 8.49, 8.49, 8.94, 8.94, 8.94, 8.94, 8.94, 8.94, 9.39, 9.83, 10.28, 10.73, 10.73, 11.18, 11.18, 10.73, 9.39, 8.05, 6.71, 5.36, 5.81, 8.05, 9.83, 11.18, 11.62, 12.96, 13.86, 14.75, 15.2, 15.65, 16.09, 16.99, 17.43, 16.09, 15.65, 15.65, 16.09, 15.65, 15.65, 15.65, 16.09, 16.09, 15.65, 14.3, 12.07, 9.83, 7.6, 7.6, 8.49, 9.83, 10.28, 9.83, 10.28, 10.28, 10.28, 10.28, 10.28, 10.73, 10.73, 10.73, 11.18, 10.73, 10.28, 9.83, 10.28, 11.18, 12.07, 13.41, 14.3, 14.75, 15.65, 15.65, 15.65, 4.02, 4.02, 4.02, 4.02, 4.02, 4.02, 4.02, 4.47, 4.47, 4.47, 4.92, 4.92, 5.36, 5.36, 5.81, 5.81, 6.26, 6.71, 7.15, 7.15, 7.6, 7.6, 8.05, 8.05, 8.05, 8.49, 8.49, 8.49, 8.94, 8.94, 8.94, 8.94, 8.94, 9.39, 9.83, 9.83, 9.83, 10.28, 10.73, 10.73, 10.73, 9.83, 8.49, 7.15, 6.71, 7.15, 7.6, 9.39, 10.73, 11.62, 12.52, 12.96, 13.41, 12.96, 12.52, 12.96, 13.86, 15.2, 16.54, 16.09, 15.65, 15.65, 16.09, 16.09, 16.54, 16.99, 17.88, 18.33, 17.88, 16.54, 13.86, 11.18, 9.83, 10.28, 10.73, 11.18, 11.18, 10.73, 10.73, 10.73, 10.73, 10.73, 11.18, 11.62, 11.18, 11.18, 11.62, 11.18, 10.73, 10.28, 10.73, 11.18, 12.07, 13.41, 14.3, 15.2, 15.2, 15.2, 4.02, 4.02, 4.02, 4.02, 4.02, 4.02, 4.02, 4.02, 4.47, 4.47, 4.92, 4.92, 4.92, 5.36, 5.81, 5.81, 6.26, 6.71, 7.15, 7.15, 7.6, 7.6, 8.05, 8.05, 8.05, 8.49, 8.49, 8.49, 8.94, 8.94, 8.94, 9.39, 9.39, 9.39, 9.39, 9.39, 9.83, 9.83, 9.83, 10.28, 10.73, 10.28, 9.39, 8.49, 8.05, 8.05, 8.05, 8.49, 9.83, 10.73, 11.18, 12.07, 12.07, 12.07, 12.07, 12.07, 11.62, 11.18, 13.41, 15.2, 14.75, 14.75, 14.3, 14.75, 15.2, 15.65, 15.65, 15.2, 15.65, 15.65, 14.75, 13.41, 12.52, 12.07, 12.07, 12.07, 12.07, 11.62, 11.62, 11.18, 11.18, 11.18, 11.62, 11.62, 11.62, 11.62, 11.62, 11.18, 10.73, 10.73, 10.73, 10.28, 11.18, 12.52, 13.86, 14.75, 14.75, 14.75, 4.02, 4.02, 4.02, 4.02, 4.02, 4.02, 4.02, 4.02, 4.47, 4.47, 4.92, 4.92, 5.36, 5.36, 5.36, 5.81, 6.26, 6.71, 7.15, 7.15, 7.6, 7.6, 8.05, 8.05, 8.05, 8.49, 8.49, 8.49, 8.94, 8.94, 8.94, 9.39, 9.39, 9.39, 9.39, 9.39, 9.39, 9.39, 9.83, 9.83, 10.28, 10.28, 10.28, 9.39, 8.49, 8.49, 8.94, 8.94, 9.83, 10.73, 10.73, 11.18, 11.18, 11.18, 11.62, 11.18, 10.73, 10.28, 11.62, 12.96, 13.86, 13.41, 12.96, 13.41, 13.41, 12.96, 12.52, 12.96, 13.86, 14.3, 13.41, 12.52, 12.52, 12.52, 12.52, 12.52, 12.96, 12.52, 12.52, 12.07, 12.07, 12.07, 12.07, 12.07, 12.07, 12.07, 11.62, 11.18, 10.73, 10.73, 11.18, 10.73, 12.07, 13.41, 13.86, 14.3, 14.3, 14.3, 4.02, 4.02, 4.02, 4.02, 3.58, 4.02, 4.02, 4.02, 4.02, 4.47, 4.47, 4.92, 5.36, 5.36, 5.81, 5.81, 6.26, 6.71, 7.15, 7.15, 7.6, 7.6, 8.05, 8.05, 8.05, 8.49, 8.49, 8.49, 8.94, 8.94, 8.94, 9.39, 9.39, 9.39, 9.39, 9.39, 9.39, 9.39, 9.83, 9.83, 10.28, 10.28, 10.28, 9.83, 9.39, 8.94, 9.39, 9.83, 10.28, 10.73, 11.18, 11.62, 11.18, 11.62, 11.62, 11.62, 11.62, 11.62, 12.52, 12.96, 12.52, 12.52, 12.52, 12.52, 12.07, 11.62, 11.18, 11.18, 11.18, 11.62, 11.18, 11.62, 11.62, 12.07, 12.52, 12.96, 13.41, 13.86, 13.41, 13.41, 12.96, 12.96, 12.96, 12.96, 12.96, 12.52, 11.62, 11.18, 11.18, 11.62, 11.62, 11.62, 12.07, 12.96, 13.86, 13.86, 13.86, 13.86, 4.02, 4.02, 4.02, 3.58, 3.58, 3.58, 4.02, 4.02, 4.02, 4.47, 4.47, 4.92, 5.36, 5.36, 5.81, 6.26, 6.26, 6.71, 6.71, 7.15, 7.6, 7.6, 8.05, 8.05, 8.05, 8.49, 8.49, 8.49, 8.94, 8.94, 8.94, 8.94, 9.39, 9.39, 9.39, 9.39, 9.39, 9.39, 9.39, 9.83, 9.83, 10.28, 10.28, 9.83, 9.83, 9.83, 9.83, 10.28, 10.73, 10.73, 11.18, 11.18, 11.62, 11.62, 12.07, 12.07, 11.62, 11.62, 12.07, 12.07, 12.07, 11.62, 11.62, 11.62, 11.18, 10.73, 10.28, 9.83, 8.49, 7.6, 9.39, 11.18, 10.73, 10.73, 11.62, 12.52, 13.86, 14.75, 15.2, 14.75, 14.75, 14.75, 14.75, 14.3, 13.86, 12.96, 12.07, 11.62, 11.18, 12.07, 12.52, 12.52, 12.52, 13.41, 14.3, 13.86, 13.41, 13.41, 4.02, 4.02, 3.58, 3.58, 3.58, 3.58, 4.02, 4.02, 4.02, 4.47, 4.47, 4.92, 5.36, 5.36, 5.81, 6.26, 6.26, 6.71, 6.71, 7.15, 7.6, 7.6, 8.05, 8.05, 8.05, 8.05, 8.49, 8.49, 8.49, 8.94, 8.94, 8.94, 9.39, 9.39, 9.39, 9.39, 9.39, 9.83, 9.83, 9.83, 9.83, 10.28, 10.28, 10.28, 10.28, 10.28, 10.28, 10.73, 10.73, 10.73, 10.73, 10.73, 11.18, 11.18, 11.62, 11.62, 11.62, 11.62, 11.62, 11.62, 11.62, 11.62, 11.62, 11.18, 10.73, 10.28, 9.83, 9.39, 8.94, 8.05, 8.94, 9.83, 9.83, 9.83, 10.28, 11.18, 12.52, 13.86, 15.65, 16.09, 16.09, 16.09, 15.65, 15.2, 14.75, 14.3, 13.86, 12.96, 11.62, 12.07, 12.52, 13.41, 13.41, 13.86, 14.3, 13.86, 13.41, 13.41, 3.58, 3.58, 3.58, 3.58, 3.58, 3.58, 4.02, 4.02, 4.02, 4.47, 4.47, 4.92, 5.36, 5.36, 5.81, 6.26, 6.26, 6.71, 6.71, 6.71, 7.15, 7.6, 7.6, 8.05, 8.05, 8.05, 8.49, 8.49, 8.49, 8.94, 8.94, 8.94, 8.94, 9.39, 9.39, 9.39, 9.39, 9.83, 9.83, 9.83, 9.83, 10.28, 10.28, 10.28, 10.28, 10.28, 10.73, 10.73, 10.73, 10.73, 10.73, 10.73, 10.73, 11.18, 11.62, 11.62, 11.62, 11.62, 11.62, 11.62, 11.62, 11.62, 11.18, 11.18, 10.73, 10.28, 9.83, 9.39, 8.94, 9.39, 9.39, 10.28, 9.83, 8.49, 8.49, 8.94, 10.28, 12.07, 14.75, 15.65, 16.54, 16.54, 16.09, 16.09, 15.65, 15.2, 15.2, 14.75, 12.52, 12.52, 12.96, 13.41, 13.86, 14.3, 14.3, 14.3, 13.41, 13.41, 3.58, 3.58, 3.58, 3.58, 3.58, 3.58, 4.02, 4.02, 4.02, 4.47, 4.47, 4.92, 5.36, 5.36, 5.81, 6.26, 6.26, 6.71, 6.71, 6.71, 7.15, 7.6, 7.6, 8.05, 8.05, 8.05, 8.49, 8.49, 8.49, 8.49, 8.94, 8.94, 8.94, 8.94, 9.39, 9.39, 9.39, 9.39, 9.39, 9.83, 9.83, 9.83, 9.83, 9.83, 10.28, 10.28, 10.73, 10.73, 10.73, 10.73, 10.73, 10.73, 11.18, 11.18, 11.62, 11.62, 11.62, 11.62, 11.18, 11.18, 11.18, 11.18, 11.18, 10.73, 10.28, 10.28, 9.83, 9.39, 9.39, 9.83, 10.28, 11.18, 9.83, 7.6, 6.71, 6.71, 10.28, 11.62, 12.52, 14.3, 16.09, 16.54, 16.09, 16.09, 16.09, 15.65, 15.2, 15.2, 14.3, 13.41, 12.96, 13.86, 14.3, 14.75, 14.75, 14.3, 13.41, 13.41, 3.58, 3.58, 3.58, 3.58, 3.58, 3.58, 4.02, 4.02, 4.02, 4.47, 4.47, 4.92, 5.36, 5.36, 5.81, 6.26, 6.26, 6.71, 6.71, 7.15, 7.15, 7.15, 7.6, 7.6, 8.05, 8.05, 8.49, 8.49, 8.49, 8.49, 8.49, 8.94, 8.94, 8.94, 8.94, 8.94, 9.39, 9.39, 9.39, 9.39, 9.39, 9.83, 9.83, 9.83, 9.83, 10.28, 10.73, 10.73, 10.73, 10.73, 10.73, 10.73, 11.18, 11.62, 11.62, 12.07, 11.62, 11.62, 11.18, 10.73, 10.73, 10.73, 10.73, 10.73, 10.28, 10.28, 9.83, 9.83, 9.83, 9.83, 10.73, 11.62, 10.28, 7.15, 4.47, 6.26, 8.05, 9.39, 11.18, 12.52, 14.3, 15.65, 16.09, 15.65, 15.65, 15.65, 15.2, 14.75, 14.75, 13.86, 13.41, 13.41, 14.3, 14.75, 14.75, 13.86, 13.41, 13.41, 3.58, 3.58, 3.58, 3.58, 3.58, 3.58, 4.02, 4.02, 4.02, 4.02, 4.47, 4.92, 4.92, 5.36, 5.81, 5.81, 6.26, 6.26, 6.71, 6.71, 7.15, 7.15, 7.6, 7.6, 8.05, 8.05, 8.05, 8.49, 8.49, 8.49, 8.49, 8.94, 8.94, 8.94, 8.94, 8.94, 9.39, 9.39, 9.39, 9.39, 9.39, 9.39, 9.83, 9.83, 9.83, 10.28, 10.28, 10.28, 10.73, 10.73, 10.73, 10.73, 11.18, 11.62, 11.62, 12.07, 11.62, 11.62, 11.18, 10.73, 10.73, 10.73, 10.73, 10.73, 10.73, 10.28, 10.28, 10.28, 9.83, 9.83, 10.73, 12.07, 10.28, 5.81, 4.47, 4.47, 6.26, 7.6, 9.39, 11.18, 12.52, 13.86, 15.2, 15.2, 15.2, 14.75, 14.75, 14.75, 14.75, 14.3, 13.41, 13.41, 13.86, 14.3, 14.3, 13.86, 13.41, 13.41, 3.13, 3.13, 3.58, 3.58, 3.58, 3.58, 3.58, 4.02, 4.02, 4.02, 4.47, 4.92, 4.92, 5.36, 5.81, 5.81, 6.26, 6.26, 6.71, 6.71, 7.15, 7.15, 7.6, 7.6, 8.05, 8.05, 8.05, 8.49, 8.49, 8.49, 8.49, 8.94, 8.94, 8.94, 8.94, 8.94, 8.94, 9.39, 9.39, 9.39, 9.39, 9.39, 9.39, 9.83, 9.83, 10.28, 10.28, 10.28, 10.28, 10.28, 10.73, 10.73, 11.18, 11.62, 11.62, 11.62, 11.62, 11.62, 11.62, 11.18, 11.18, 11.18, 11.18, 10.73, 10.73, 10.73, 10.73, 10.28, 10.28, 9.83, 9.83, 11.18, 12.52, 8.94, 5.81, 4.47, 4.47, 5.81, 7.6, 9.39, 11.18, 12.52, 13.41, 14.3, 14.3, 14.3, 14.3, 14.75, 14.75, 14.75, 13.86, 13.41, 13.41, 13.86, 13.41, 12.96, 12.96, 12.96, 3.13, 3.13, 3.13, 3.58, 3.58, 3.58, 3.58, 4.02, 4.02, 4.02, 4.47, 4.92, 4.92, 5.36, 5.81, 5.81, 6.26, 6.26, 6.71, 6.71, 7.15, 7.15, 7.6, 7.6, 8.05, 8.05, 8.05, 8.05, 8.49, 8.49, 8.49, 8.94, 8.94, 8.94, 8.94, 8.94, 8.94, 9.39, 9.39, 9.39, 9.39, 9.39, 9.39, 9.39, 9.83, 9.83, 10.28, 10.28, 10.28, 10.28, 10.73, 10.73, 11.18, 11.62, 11.62, 11.62, 11.62, 11.62, 11.62, 11.62, 11.62, 11.62, 11.18, 11.18, 11.18, 10.73, 10.73, 10.28, 10.28, 9.39, 9.39, 10.73, 12.96, 11.62, 8.49, 5.81, 4.02, 4.92, 6.26, 8.05, 9.83, 11.18, 12.52, 13.41, 14.3, 14.75, 14.75, 14.75, 14.3, 14.75, 14.75, 13.86, 12.96, 12.96, 12.52, 12.07, 12.52, 12.52, 3.13, 3.13, 3.13, 3.13, 3.58, 3.58, 3.58, 3.58, 4.02, 4.02, 4.47, 4.47, 4.92, 5.36, 5.36, 5.81, 6.26, 6.26, 6.71, 6.71, 7.15, 7.15, 7.6, 7.6, 8.05, 8.05, 8.05, 8.05, 8.49, 8.49, 8.49, 8.49, 8.94, 8.94, 8.94, 8.94, 8.94, 9.39, 9.39, 9.39, 9.39, 9.39, 9.39, 9.39, 9.83, 9.83, 10.28, 10.28, 10.28, 10.28, 10.73, 10.73, 11.18, 11.18, 11.62, 11.62, 11.62, 11.62, 11.62, 11.62, 12.07, 11.62, 11.62, 11.18, 11.18, 10.73, 10.73, 10.73, 9.83, 9.83, 9.39, 9.83, 11.62, 12.52, 11.18, 8.05, 4.92, 4.47, 5.36, 7.15, 9.39, 10.73, 11.62, 12.52, 12.96, 13.86, 14.3, 14.3, 13.86, 14.3, 14.3, 14.3, 13.41, 12.52, 11.62, 11.18, 12.07, 12.07, 3.13, 3.13, 3.13, 3.13, 3.13, 3.58, 3.58, 3.58, 4.02, 4.02, 4.47, 4.47, 4.92, 5.36, 5.36, 5.81, 5.81, 6.26, 6.71, 6.71, 7.15, 7.15, 7.6, 7.6, 7.6, 8.05, 8.05, 8.05, 8.05, 8.49, 8.49, 8.49, 8.49, 8.94, 8.94, 8.94, 8.94, 8.94, 8.94, 9.39, 9.39, 9.39, 9.39, 9.39, 9.83, 9.83, 9.83, 9.83, 10.28, 10.28, 10.73, 10.73, 11.18, 11.18, 11.18, 11.18, 11.18, 11.62, 11.62, 11.62, 12.07, 11.62, 11.62, 11.18, 11.18, 10.73, 10.73, 10.28, 10.28, 9.83, 9.39, 9.39, 10.28, 11.18, 12.07, 11.18, 8.05, 5.81, 5.81, 7.15, 8.94, 10.73, 11.62, 12.07, 12.52, 12.52, 13.41, 13.86, 13.86, 14.3, 14.3, 14.75, 13.86, 12.52, 11.18, 10.73, 11.18, 11.18, 2.68, 2.68, 3.13, 3.13, 3.13, 3.13, 3.58, 3.58, 3.58, 4.02, 4.47, 4.47, 4.92, 4.92, 5.36, 5.81, 5.81, 6.26, 6.71, 6.71, 7.15, 7.15, 7.6, 7.6, 7.6, 8.05, 8.05, 8.05, 8.05, 8.49, 8.49, 8.49, 8.49, 8.94, 8.94, 8.94, 8.94, 8.94, 8.94, 8.94, 9.39, 9.39, 9.39, 9.39, 9.39, 9.83, 9.39, 9.83, 9.83, 10.28, 10.73, 10.73, 11.18, 11.18, 11.18, 11.18, 11.18, 11.18, 11.62, 11.62, 11.62, 11.62, 11.18, 11.18, 11.18, 10.73, 10.73, 10.73, 10.28, 9.83, 9.83, 9.83, 9.39, 9.39, 9.83, 11.18, 11.18, 8.94, 7.6, 7.6, 8.94, 10.73, 12.07, 12.52, 12.96, 12.96, 12.96, 13.41, 13.86, 13.86, 14.3, 14.75, 14.75, 13.41, 12.07, 11.18, 11.62, 11.62, 2.68, 2.68, 2.68, 3.13, 3.13, 3.13, 3.58, 3.58, 3.58, 4.02, 4.02, 4.47, 4.92, 4.92, 5.36, 5.81, 5.81, 6.26, 6.26, 6.71, 7.15, 7.15, 7.6, 7.6, 7.6, 8.05, 8.05, 8.05, 8.05, 8.49, 8.49, 8.49, 8.49, 8.49, 8.94, 8.94, 8.94, 8.94, 8.94, 8.94, 8.94, 9.39, 9.39, 9.39, 9.39, 9.39, 9.39, 9.83, 9.83, 10.28, 10.28, 10.73, 10.73, 10.73, 10.73, 10.73, 11.18, 11.18, 11.18, 11.62, 11.18, 11.18, 11.18, 11.18, 11.18, 10.73, 10.73, 10.73, 10.28, 9.83, 9.83, 9.83, 9.83, 8.94, 8.49, 9.39, 11.18, 10.73, 9.39, 8.49, 9.39, 10.73, 12.07, 12.52, 12.96, 12.96, 12.52, 12.52, 12.96, 13.86, 14.3, 15.2, 15.65, 14.75, 13.41, 12.52, 12.52, 12.52, 2.68, 2.68, 2.68, 2.68, 3.13, 3.13, 3.13, 3.58, 3.58, 3.58, 4.02, 4.47, 4.92, 4.92, 5.36, 5.81, 5.81, 6.26, 6.26, 6.71, 7.15, 7.15, 7.15, 7.6, 7.6, 8.05, 8.05, 8.05, 8.05, 8.05, 8.49, 8.49, 8.49, 8.49, 8.94, 8.94, 8.94, 8.94, 8.94, 8.94, 8.94, 8.94, 9.39, 9.39, 9.39, 9.39, 9.39, 9.39, 9.83, 9.83, 10.28, 10.28, 10.28, 10.73, 10.73, 10.73, 10.73, 11.18, 11.18, 11.18, 11.18, 10.73, 11.18, 11.18, 11.18, 11.18, 10.73, 10.73, 10.28, 10.28, 9.83, 10.28, 10.28, 9.39, 8.94, 8.94, 9.83, 10.28, 10.28, 9.39, 9.39, 10.73, 11.62, 12.52, 12.52, 12.52, 12.52, 12.52, 12.96, 13.86, 14.3, 14.75, 15.65, 15.2, 14.75, 13.86, 13.86, 13.86, 2.68, 2.68, 2.68, 2.68, 3.13, 3.13, 3.13, 3.58, 3.58, 3.58, 4.02, 4.02, 4.47, 4.92, 5.36, 5.81, 5.81, 6.26, 6.26, 6.71, 6.71, 7.15, 7.15, 7.6, 7.6, 8.05, 8.05, 8.05, 8.05, 8.05, 8.49, 8.49, 8.49, 8.49, 8.49, 8.94, 8.94, 8.94, 8.94, 8.94, 8.94, 8.94, 8.94, 8.94, 9.39, 8.94, 9.39, 9.39, 9.83, 9.83, 9.83, 9.83, 10.28, 10.28, 10.73, 10.73, 10.73, 10.73, 10.73, 10.73, 10.73, 10.73, 11.18, 11.18, 10.73, 11.18, 11.18, 10.73, 10.73, 10.73, 10.28, 10.28, 10.73, 10.28, 9.39, 8.94, 8.94, 9.39, 9.83, 10.28, 9.83, 10.28, 11.18, 12.07, 12.52, 12.07, 12.07, 12.52, 12.96, 13.41, 13.86, 14.3, 15.2, 15.65, 15.2, 14.75, 15.2, 15.2, 2.24, 2.24, 2.68, 2.68, 2.68, 3.13, 3.13, 3.13, 3.58, 3.58, 4.02, 4.02, 4.47, 4.92, 5.36, 5.81, 5.81, 6.26, 6.26, 6.71, 6.71, 7.15, 7.15, 7.6, 7.6, 7.6, 8.05, 8.05, 8.05, 8.05, 8.49, 8.49, 8.49, 8.49, 8.49, 8.94, 8.94, 8.94, 8.94, 8.94, 8.94, 8.94, 8.94, 8.94, 8.94, 8.94, 9.39, 9.39, 9.39, 9.83, 9.83, 9.83, 9.83, 10.28, 10.28, 10.73, 10.73, 10.73, 10.73, 10.73, 10.73, 10.73, 10.73, 10.73, 10.73, 10.73, 10.73, 10.73, 10.73, 10.73, 10.73, 10.73, 10.73, 10.73, 10.73, 9.83, 8.94, 8.94, 9.39, 10.28, 10.28, 10.28, 10.73, 11.62, 12.07, 12.07, 12.07, 12.07, 12.07, 12.52, 12.96, 13.41, 14.3, 15.2, 15.65, 15.65, 15.65, 15.65, 2.24, 2.24, 2.24, 2.68, 2.68, 2.68, 3.13, 3.13, 3.58, 3.58, 4.02, 4.02, 4.47, 4.47, 5.36, 5.81, 5.81, 6.26, 6.71, 6.71, 7.15, 7.15, 7.15, 7.6, 7.6, 7.6, 8.05, 8.05, 8.05, 8.05, 8.05, 8.49, 8.49, 8.49, 8.49, 8.49, 8.49, 8.94, 8.94, 8.94, 8.94, 8.94, 8.94, 8.94, 8.94, 8.94, 8.94, 9.39, 9.39, 9.39, 9.83, 9.83, 9.83, 10.28, 10.28, 10.28, 10.28, 10.73, 10.73, 10.28, 10.73, 10.73, 10.73, 10.73, 10.73, 10.73, 10.73, 10.73, 10.73, 11.18, 11.18, 10.73, 10.28, 10.73, 11.62, 10.73, 9.39, 8.94, 8.94, 9.83, 9.83, 9.83, 10.73, 11.62, 12.07, 12.52, 12.07, 12.07, 12.07, 12.52, 12.52, 12.96, 13.86, 14.75, 15.2, 15.65, 16.09, 16.09, 2.24, 2.24, 2.24, 2.68, 2.68, 2.68, 3.13, 3.13, 3.58, 3.58, 4.02, 4.02, 4.47, 4.92, 5.36, 5.81, 5.81, 6.26, 6.71, 6.71, 7.15, 7.15, 7.15, 7.6, 7.6, 7.6, 8.05, 8.05, 8.05, 8.05, 8.05, 8.49, 8.49, 8.49, 8.49, 8.49, 8.49, 8.49, 8.49, 8.94, 8.94, 8.94, 8.94, 8.94, 8.94, 8.94, 8.94, 8.94, 9.39, 9.39, 9.39, 9.83, 9.83, 10.28, 10.28, 10.28, 10.28, 10.28, 10.73, 10.28, 10.73, 10.73, 10.73, 10.73, 10.73, 10.73, 10.73, 10.73, 10.73, 11.18, 11.18, 11.18, 10.73, 10.73, 11.62, 11.18, 9.83, 9.39, 9.39, 9.39, 9.39, 9.83, 10.28, 11.18, 12.07, 12.52, 12.52, 12.52, 12.52, 12.52, 12.52, 12.96, 13.41, 13.86, 14.75, 15.65, 16.09, 16.09, 2.24, 2.24, 2.24, 2.24, 2.68, 2.68, 3.13, 3.13, 3.58, 3.58, 4.02, 4.02, 4.47, 4.92, 4.92, 5.81, 6.26, 6.26, 6.71, 6.71, 7.15, 7.15, 7.15, 7.6, 7.6, 7.6, 8.05, 8.05, 8.05, 8.05, 8.05, 8.05, 8.49, 8.49, 8.49, 8.49, 8.49, 8.49, 8.49, 8.49, 8.49, 8.94, 8.94, 8.94, 8.94, 8.94, 8.94, 9.39, 9.39, 9.39, 9.83, 9.83, 9.83, 10.28, 10.28, 10.28, 10.28, 10.28, 10.28, 10.73, 10.73, 10.73, 10.73, 10.73, 10.73, 10.73, 10.73, 10.73, 10.73, 11.18, 11.18, 11.18, 11.18, 11.18, 11.18, 11.18, 10.73, 9.83, 9.39, 9.39, 8.94, 8.94, 9.83, 11.18, 12.52, 12.96, 12.96, 12.52, 12.52, 12.52, 12.96, 12.96, 13.41, 13.86, 14.3, 15.2, 16.09, 16.09, 2.24, 2.24, 2.24, 2.24, 2.68, 2.68, 3.13, 3.13, 3.58, 3.58, 4.02, 4.02, 4.47, 4.92, 5.36, 5.36, 6.26, 6.26, 6.71, 6.71, 7.15, 7.15, 7.15, 7.6, 7.6, 7.6, 7.6, 8.05, 8.05, 8.05, 8.05, 8.05, 8.49, 8.49, 8.49, 8.49, 8.49, 8.49, 8.49, 8.49, 8.49, 8.49, 8.94, 8.94, 8.94, 8.94, 8.94, 9.39, 9.39, 9.39, 9.83, 9.83, 9.83, 10.28, 10.28, 10.28, 10.28, 10.28, 10.28, 10.73, 10.73, 10.73, 10.73, 10.73, 10.73, 10.73, 10.73, 11.18, 11.18, 11.18, 11.18, 11.62, 11.62, 12.07, 11.62, 11.18, 10.73, 10.28, 9.39, 8.94, 8.49, 8.49, 9.39, 10.73, 12.07, 12.52, 12.96, 12.52, 12.52, 12.52, 12.96, 13.41, 13.41, 13.86, 14.3, 14.75, 16.09, 16.09, 2.24, 2.24, 2.24, 2.24, 2.68, 2.68, 3.13, 3.13, 3.58, 3.58, 4.02, 4.47, 4.47, 4.92, 5.36, 5.36, 6.26, 6.26, 6.71, 6.71, 7.15, 7.15, 7.15, 7.6, 7.6, 7.6, 7.6, 8.05, 8.05, 8.05, 8.05, 8.05, 8.05, 8.49, 8.49, 8.49, 8.49, 8.49, 8.49, 8.49, 8.49, 8.49, 8.94, 8.94, 8.94, 8.94, 8.94, 9.39, 9.39, 9.83, 9.83, 9.83, 9.83, 10.28, 10.28, 10.28, 10.28, 10.28, 10.28, 10.28, 10.28, 10.28, 10.73, 10.73, 10.73, 10.73, 11.18, 11.18, 11.18, 11.18, 11.18, 11.62, 12.07, 12.52, 12.07, 11.18, 10.28, 9.83, 9.83, 9.39, 8.49, 8.49, 8.94, 9.83, 11.18, 12.07, 12.52, 12.52, 12.52, 12.52, 12.96, 13.41, 13.41, 13.86, 14.3, 14.75, 15.65, 15.65, 2.24, 2.24, 2.24, 2.24, 2.68, 2.68, 3.13, 3.13, 3.58, 3.58, 4.02, 4.47, 4.92, 4.92, 5.36, 5.81, 5.81, 6.26, 6.71, 6.71, 6.71, 7.15, 7.15, 7.15, 7.6, 7.6, 7.6, 8.05, 8.05, 8.05, 8.05, 8.05, 8.05, 8.05, 8.05, 8.05, 8.05, 8.49, 8.49, 8.49, 8.49, 8.49, 8.49, 8.94, 8.94, 8.94, 8.94, 9.39, 9.39, 9.83, 9.83, 9.83, 10.28, 10.28, 10.28, 10.28, 10.28, 10.28, 10.28, 10.28, 10.28, 10.28, 10.73, 10.73, 10.73, 11.18, 11.18, 11.18, 11.18, 11.18, 11.62, 11.62, 12.07, 12.96, 12.96, 11.62, 10.28, 9.83, 9.39, 8.94, 8.49, 8.05, 8.05, 9.39, 10.73, 11.62, 11.62, 11.62, 12.07, 12.07, 12.52, 12.96, 13.41, 13.86, 14.3, 14.75, 15.2, 15.65, 2.24, 2.24, 2.24, 2.24, 2.68, 2.68, 3.13, 3.13, 3.58, 3.58, 4.02, 4.47, 4.92, 4.92, 5.36, 5.81, 5.81, 6.26, 6.71, 6.71, 6.71, 7.15, 7.15, 7.15, 7.6, 7.6, 7.6, 7.6, 8.05, 8.05, 8.05, 8.05, 8.05, 8.05, 8.05, 8.05, 8.05, 8.05, 8.05, 8.49, 8.49, 8.49, 8.49, 8.94, 8.94, 8.94, 8.94, 9.39, 9.39, 9.39, 9.83, 9.83, 10.28, 10.28, 10.28, 10.28, 10.28, 10.28, 10.28, 10.28, 10.28, 10.73, 10.73, 10.73, 10.73, 11.18, 11.18, 11.18, 11.18, 11.62, 11.62, 11.62, 12.07, 12.96, 14.3, 13.41, 11.62, 10.28, 9.39, 8.94, 8.49, 7.6, 8.05, 8.49, 9.83, 10.73, 11.18, 11.18, 11.62, 11.62, 12.07, 12.52, 12.96, 13.41, 13.86, 14.3, 15.2, 15.2, 2.24, 2.24, 2.24, 2.68, 2.68, 2.68, 3.13, 3.13, 3.58, 4.02, 4.02, 4.47, 4.92, 4.92, 5.36, 5.81, 5.81, 6.26, 6.26, 6.71, 6.71, 6.71, 7.15, 7.15, 7.15, 7.6, 7.6, 7.6, 7.6, 7.6, 8.05, 8.05, 8.05, 8.05, 8.05, 8.05, 8.05, 8.05, 8.05, 8.49, 8.49, 8.49, 8.49, 8.94, 8.94, 8.94, 8.94, 9.39, 9.39, 9.83, 9.83, 9.83, 10.28, 10.28, 10.28, 10.28, 10.28, 10.28, 10.28, 10.28, 10.28, 10.73, 10.73, 10.73, 11.18, 11.18, 11.18, 11.18, 11.62, 11.62, 11.62, 11.62, 12.07, 12.96, 13.86, 14.75, 13.41, 12.07, 10.73, 9.39, 8.49, 7.6, 7.6, 8.05, 9.39, 10.28, 10.73, 10.73, 11.18, 11.62, 12.07, 12.52, 12.96, 12.96, 13.41, 13.86, 15.2, 15.2, 2.24, 2.24, 2.24, 2.68, 2.68, 3.13, 3.13, 3.58, 3.58, 4.02, 4.02, 4.47, 4.92, 4.92, 5.36, 5.36, 5.81, 5.81, 6.26, 6.71, 6.71, 6.71, 7.15, 7.15, 7.15, 7.6, 7.6, 7.6, 7.6, 7.6, 7.6, 8.05, 8.05, 8.05, 8.05, 8.05, 8.05, 8.05, 8.05, 8.05, 8.49, 8.49, 8.49, 8.94, 8.94, 9.39, 9.39, 9.39, 9.39, 9.83, 9.83, 9.83, 10.28, 10.28, 10.28, 10.28, 10.28, 10.28, 10.28, 10.28, 10.73, 10.73, 10.73, 10.73, 11.18, 11.18, 11.18, 11.18, 11.62, 11.62, 11.62, 11.62, 11.62, 12.52, 12.96, 14.3, 14.75, 13.41, 12.07, 10.73, 9.39, 8.05, 7.6, 8.05, 8.49, 9.39, 9.83, 10.28, 10.73, 11.18, 11.62, 12.07, 12.52, 12.52, 13.86, 14.75, 14.75, 14.75, 2.24, 2.24, 2.24, 2.68, 2.68, 3.13, 3.13, 3.58, 4.02, 4.02, 4.47, 4.47, 4.92, 4.92, 5.36, 5.36, 5.81, 5.81, 6.26, 6.26, 6.71, 6.71, 6.71, 7.15, 7.15, 7.15, 7.6, 7.6, 7.6, 7.6, 7.6, 7.6, 7.6, 8.05, 8.05, 8.05, 8.05, 8.05, 8.05, 8.05, 8.49, 8.49, 8.49, 8.94, 8.94, 9.39, 9.39, 9.39, 9.83, 9.83, 9.83, 9.83, 10.28, 10.28, 10.28, 10.28, 10.28, 10.28, 10.28, 10.28, 10.73, 10.73, 10.73, 10.73, 11.18, 11.18, 11.18, 11.18, 11.62, 11.62, 11.62, 11.62, 11.62, 12.07, 12.52, 13.41, 14.3, 14.3, 12.96, 11.62, 10.28, 8.49, 7.6, 7.6, 8.05, 8.94, 9.39, 9.83, 10.28, 10.73, 11.62, 11.62, 12.07, 12.52, 13.41, 14.3, 14.3, 14.3, 2.24, 2.24, 2.24, 2.68, 2.68, 3.13, 3.13, 3.58, 4.02, 4.02, 4.47, 4.47, 4.92, 4.92, 5.36, 5.36, 5.81, 5.81, 5.81, 6.26, 6.71, 6.71, 6.71, 7.15, 7.15, 7.15, 7.15, 7.15, 7.6, 7.6, 7.6, 7.6, 7.6, 7.6, 8.05, 8.05, 8.05, 8.05, 8.05, 8.05, 8.49, 8.49, 8.49, 8.94, 8.94, 9.39, 9.39, 9.39, 9.83, 9.83, 9.83, 9.83, 10.28, 10.28, 10.28, 10.28, 10.28, 10.28, 10.28, 10.28, 10.28, 10.73, 10.73, 10.73, 11.18, 11.18, 11.18, 11.62, 11.62, 11.62, 11.62, 11.62, 11.62, 12.07, 12.52, 12.96, 13.86, 14.3, 14.3, 12.96, 11.18, 9.39, 8.05, 7.15, 7.6, 8.05, 8.94, 9.39, 9.83, 10.73, 11.18, 11.62, 12.07, 12.52, 13.41, 14.3, 14.3, 14.3, 2.24, 2.24, 2.24, 2.68, 2.68, 3.13, 3.58, 3.58, 4.02, 4.02, 4.47, 4.47, 4.92, 4.92, 5.36, 5.36, 5.36, 5.81, 5.81, 6.26, 6.26, 6.71, 6.71, 6.71, 7.15, 7.15, 7.15, 7.15, 7.15, 7.6, 7.6, 7.6, 7.6, 7.6, 7.6, 8.05, 8.05, 8.05, 8.05, 8.05, 8.49, 8.49, 8.49, 8.94, 8.94, 8.94, 9.39, 9.39, 9.83, 9.83, 9.83, 9.83, 9.83, 10.28, 10.28, 10.28, 10.28, 10.28, 10.28, 10.28, 10.73, 10.73, 10.73, 10.73, 10.73, 11.18, 11.18, 11.62, 11.62, 11.62, 11.62, 12.07, 12.07, 12.07, 12.52, 12.52, 13.41, 13.86, 14.3, 13.86, 12.96, 10.73, 8.49, 7.15, 7.15, 7.6, 8.05, 8.94, 9.83, 10.28, 10.73, 11.18, 12.07, 12.52, 13.41, 14.3, 14.3, 14.3, 2.24, 2.24, 2.24, 2.68, 3.13, 3.13, 3.58, 3.58, 4.02, 4.02, 4.47, 4.47, 4.47, 4.92, 4.92, 5.36, 5.36, 5.81, 5.81, 5.81, 6.26, 6.71, 6.71, 6.71, 6.71, 7.15, 7.15, 7.15, 7.15, 7.15, 7.15, 7.6, 7.6, 7.6, 7.6, 7.6, 8.05, 8.05, 8.05, 8.05, 8.49, 8.49, 8.49, 8.94, 8.94, 8.94, 9.39, 9.39, 9.39, 9.83, 9.83, 9.83, 9.83, 10.28, 10.28, 10.28, 10.28, 10.28, 10.73, 10.73, 10.73, 10.73, 10.73, 10.73, 10.73, 11.18, 11.18, 11.18, 11.62, 11.62, 11.62, 12.07, 12.07, 12.07, 12.52, 12.96, 12.96, 13.86, 14.3, 13.86, 13.86, 12.07, 9.83, 7.15, 6.26, 6.71, 7.6, 8.49, 9.39, 9.83, 10.28, 11.18, 12.07, 12.52, 13.41, 14.3, 14.3, 14.3, 2.24, 2.24, 2.68, 2.68, 3.13, 3.13, 3.58, 3.58, 4.02, 4.02, 4.47, 4.47, 4.47, 4.92, 4.92, 5.36, 5.36, 5.81, 5.81, 5.81, 6.26, 6.26, 6.71, 6.71, 6.71, 6.71, 6.71, 7.15, 7.15, 7.15, 7.15, 7.15, 7.6, 7.6, 7.6, 7.6, 7.6, 8.05, 8.05, 8.05, 8.49, 8.49, 8.49, 8.94, 8.94, 8.94, 9.39, 9.39, 9.39, 9.83, 9.83, 9.83, 9.83, 10.28, 10.28, 10.28, 10.28, 10.28, 10.73, 10.73, 10.73, 10.73, 10.73, 10.73, 10.73, 10.73, 11.18, 11.18, 11.18, 11.62, 11.62, 12.07, 12.07, 12.52, 12.52, 12.96, 12.96, 13.41, 13.86, 13.86, 13.86, 13.41, 11.18, 8.05, 6.26, 6.26, 7.6, 8.49, 9.39, 9.39, 10.28, 11.18, 12.07, 12.96, 13.86, 14.75, 14.75, 14.75, 2.24, 2.24, 2.68, 2.68, 3.13, 3.13, 3.58, 3.58, 4.02, 4.02, 4.02, 4.47, 4.47, 4.92, 4.92, 4.92, 5.36, 5.36, 5.81, 5.81, 5.81, 6.26, 6.26, 6.71, 6.71, 6.71, 6.71, 6.71, 7.15, 7.15, 7.15, 7.15, 7.15, 7.6, 7.6, 7.6, 7.6, 8.05, 8.05, 8.05, 8.49, 8.49, 8.49, 8.94, 8.94, 8.94, 9.39, 9.39, 9.39, 9.39, 9.83, 9.83, 9.83, 9.83, 10.28, 10.28, 10.28, 10.28, 10.73, 10.73, 10.73, 10.73, 10.73, 10.73, 10.73, 10.73, 11.18, 11.18, 11.18, 11.18, 11.18, 11.62, 12.07, 12.52, 12.52, 12.96, 12.96, 13.41, 13.86, 13.86, 13.86, 13.86, 12.96, 9.83, 6.71, 6.71, 8.05, 8.49, 8.94, 9.39, 10.28, 11.18, 12.07, 12.96, 13.86, 14.75, 14.75, 14.75, 2.24, 2.24, 2.68, 2.68, 3.13, 3.13, 3.58, 3.58, 4.02, 4.02, 4.02, 4.47, 4.47, 4.47, 4.92, 4.92, 5.36, 5.36, 5.36, 5.81, 5.81, 6.26, 6.26, 6.26, 6.71, 6.71, 6.71, 6.71, 6.71, 7.15, 7.15, 7.15, 7.15, 7.6, 7.6, 7.6, 7.6, 8.05, 8.05, 8.05, 8.49, 8.49, 8.49, 8.94, 8.94, 8.94, 8.94, 9.39, 9.39, 9.39, 9.83, 9.83, 9.83, 10.28, 10.28, 10.28, 10.28, 10.28, 10.73, 10.73, 10.73, 10.73, 10.73, 11.18, 11.18, 11.18, 11.18, 11.18, 11.18, 11.18, 11.18, 11.18, 11.18, 12.07, 12.52, 12.52, 12.96, 12.96, 13.41, 13.86, 13.86, 13.86, 13.41, 11.62, 8.49, 8.05, 8.49, 8.49, 8.94, 9.39, 10.28, 11.62, 12.52, 13.41, 14.3, 14.75, 14.75, 14.75, 2.24, 2.24, 2.68, 2.68, 3.13, 3.13, 3.58, 3.58, 3.58, 4.02, 4.02, 4.47, 4.47, 4.47, 4.92, 4.92, 5.36, 5.36, 5.36, 5.81, 5.81, 5.81, 6.26, 6.26, 6.26, 6.71, 6.71, 6.71, 6.71, 6.71, 7.15, 7.15, 7.15, 7.15, 7.6, 7.6, 7.6, 8.05, 8.05, 8.05, 8.49, 8.49, 8.49, 8.49, 8.94, 8.94, 8.94, 9.39, 9.39, 9.39, 9.39, 9.83, 9.83, 10.28, 10.28, 10.28, 10.28, 10.28, 10.73, 10.73, 10.73, 10.73, 10.73, 11.18, 11.18, 11.18, 11.18, 11.18, 11.18, 11.18, 11.18, 11.18, 11.18, 11.18, 12.07, 12.07, 12.52, 12.96, 12.96, 13.41, 13.86, 13.86, 13.41, 12.07, 8.94, 8.49, 8.49, 8.49, 8.94, 9.83, 10.73, 11.62, 12.52, 13.41, 14.3, 14.75, 14.75, 14.75, 2.24, 2.24, 2.24, 2.68, 3.13, 3.13, 3.58, 3.58, 3.58, 4.02, 4.02, 4.02, 4.47, 4.47, 4.92, 4.92, 4.92, 5.36, 5.36, 5.36, 5.81, 5.81, 6.26, 6.26, 6.26, 6.26, 6.71, 6.71, 6.71, 6.71, 7.15, 7.15, 7.15, 7.15, 7.6, 7.6, 7.6, 8.05, 8.05, 8.05, 8.05, 8.49, 8.49, 8.49, 8.94, 8.94, 8.94, 8.94, 9.39, 9.39, 9.39, 9.83, 9.83, 9.83, 10.28, 10.28, 10.28, 10.28, 10.73, 10.73, 10.73, 10.73, 10.73, 11.18, 11.18, 11.18, 11.18, 11.18, 11.18, 11.62, 11.62, 11.62, 11.18, 11.18, 11.62, 11.62, 12.07, 12.52, 12.52, 12.96, 13.41, 13.41, 12.96, 10.73, 9.39, 8.49, 8.49, 8.94, 9.39, 10.28, 11.18, 11.62, 12.52, 13.41, 14.3, 14.75, 14.75, 14.75, 2.24, 2.24, 2.24, 2.68, 3.13, 3.13, 3.13, 3.58, 3.58, 4.02, 4.02, 4.02, 4.47, 4.47, 4.47, 4.92, 4.92, 4.92, 5.36, 5.36, 5.36, 5.81, 5.81, 6.26, 6.26, 6.26, 6.26, 6.71, 6.71, 6.71, 6.71, 7.15, 7.15, 7.15, 7.6, 7.6, 7.6, 7.6, 8.05, 8.05, 8.05, 8.05, 8.49, 8.49, 8.49, 8.94, 8.94, 8.94, 9.39, 9.39, 9.39, 9.83, 9.83, 9.83, 10.28, 10.28, 10.28, 10.28, 10.73, 10.73, 10.73, 10.73, 10.73, 11.18, 11.18, 11.18, 11.18, 11.18, 11.62, 11.62, 11.62, 11.62, 11.62, 11.62, 11.62, 11.62, 12.07, 12.07, 12.52, 12.52, 12.96, 12.96, 12.52, 10.73, 8.94, 8.05, 8.49, 8.94, 9.39, 10.28, 10.73, 11.62, 12.07, 12.96, 13.86, 14.3, 14.3, 14.3, 2.24, 2.24, 2.24, 2.68, 2.68, 3.13, 3.13, 3.58, 3.58, 3.58, 4.02, 4.02, 4.47, 4.47, 4.47, 4.92, 4.92, 4.92, 5.36, 5.36, 5.36, 5.81, 5.81, 5.81, 6.26, 6.26, 6.26, 6.71, 6.71, 6.71, 6.71, 7.15, 7.15, 7.15, 7.15, 7.6, 7.6, 7.6, 8.05, 8.05, 8.05, 8.05, 8.49, 8.49, 8.49, 8.49, 8.94, 8.94, 8.94, 9.39, 9.39, 9.39, 9.83, 9.83, 10.28, 10.28, 10.28, 10.28, 10.73, 10.73, 10.73, 10.73, 10.73, 10.73, 11.18, 11.18, 11.18, 11.18, 11.18, 11.62, 11.62, 11.62, 11.62, 11.62, 11.62, 12.07, 12.07, 12.07, 12.52, 12.96, 12.96, 13.41, 13.41, 11.62, 8.94, 8.05, 8.05, 8.94, 9.39, 9.83, 10.28, 11.18, 11.62, 12.52, 13.41, 13.41, 13.41, 13.41, 2.24, 2.24, 2.24, 2.68, 2.68, 3.13, 3.13, 3.58, 3.58, 3.58, 4.02, 4.02, 4.47, 4.47, 4.47, 4.47, 4.92, 4.92, 4.92, 5.36, 5.36, 5.36, 5.81, 5.81, 6.26, 6.26, 6.26, 6.26, 6.71, 6.71, 6.71, 6.71, 7.15, 7.15, 7.15, 7.6, 7.6, 7.6, 7.6, 8.05, 8.05, 8.05, 8.05, 8.49, 8.49, 8.49, 8.94, 8.94, 8.94, 9.39, 9.39, 9.39, 9.83, 9.83, 10.28, 10.28, 10.28, 10.28, 10.28, 10.73, 10.73, 10.73, 10.73, 10.73, 11.18, 11.18, 11.18, 11.18, 11.18, 11.18, 11.62, 11.62, 11.62, 11.62, 11.62, 11.62, 11.62, 12.07, 12.52, 12.96, 12.96, 13.41, 13.86, 13.41, 10.28, 8.05, 8.49, 8.49, 8.94, 9.39, 9.83, 10.73, 11.62, 12.07, 12.52, 12.52, 12.52, 12.52, 2.24, 2.24, 2.24, 2.68, 2.68, 3.13, 3.13, 3.13, 3.58, 3.58, 4.02, 4.02, 4.02, 4.47, 4.47, 4.47, 4.92, 4.92, 4.92, 5.36, 5.36, 5.36, 5.81, 5.81, 6.26, 6.26, 6.26, 6.26, 6.71, 6.71, 6.71, 6.71, 7.15, 7.15, 7.15, 7.15, 7.6, 7.6, 7.6, 7.6, 8.05, 8.05, 8.05, 8.05, 8.49, 8.49, 8.49, 8.94, 8.94, 9.39, 9.39, 9.83, 9.83, 9.83, 9.83, 10.28, 10.28, 10.28, 10.28, 10.73, 10.73, 10.73, 10.73, 10.73, 10.73, 11.18, 11.18, 11.18, 11.18, 11.18, 11.18, 11.18, 11.62, 11.62, 11.62, 11.62, 11.62, 11.62, 12.07, 12.52, 12.96, 13.41, 13.86, 13.86, 12.07, 9.39, 8.94, 8.94, 8.49, 8.94, 9.39, 10.28, 11.18, 11.62, 12.07, 11.62, 11.62, 11.62, 2.24, 2.24, 2.24, 2.68, 2.68, 3.13, 3.13, 3.13, 3.58, 3.58, 3.58, 4.02, 4.02, 4.47, 4.47, 4.47, 4.47, 4.92, 4.92, 4.92, 5.36, 5.36, 5.36, 5.81, 5.81, 6.26, 6.26, 6.26, 6.26, 6.71, 6.71, 6.71, 7.15, 7.15, 7.15, 7.15, 7.15, 7.6, 7.6, 7.6, 7.6, 8.05, 8.05, 8.05, 8.49, 8.49, 8.49, 8.94, 8.94, 8.94, 9.39, 9.39, 9.83, 9.83, 9.83, 10.28, 10.28, 10.28, 10.28, 10.28, 10.73, 10.73, 10.73, 10.73, 10.73, 10.73, 11.18, 11.18, 11.18, 11.18, 11.18, 11.18, 11.18, 11.62, 11.62, 11.62, 11.62, 11.62, 11.62, 12.07, 12.52, 12.96, 13.41, 13.86, 12.96, 11.18, 9.83, 9.39, 8.94, 8.94, 8.94, 9.83, 11.18, 11.62, 11.62, 11.18, 11.18, 11.18, 2.24, 2.24, 2.24, 2.68, 2.68, 2.68, 3.13, 3.13, 3.58, 3.58, 3.58, 4.02, 4.02, 4.02, 4.47, 4.47, 4.47, 4.92, 4.92, 4.92, 5.36, 5.36, 5.36, 5.81, 5.81, 6.26, 6.26, 6.26, 6.26, 6.71, 6.71, 6.71, 6.71, 7.15, 7.15, 7.15, 7.15, 7.15, 7.6, 7.6, 7.6, 7.6, 8.05, 8.05, 8.49, 8.49, 8.49, 8.94, 8.94, 8.94, 9.39, 9.39, 9.83, 9.83, 9.83, 9.83, 10.28, 10.28, 10.28, 10.28, 10.28, 10.73, 10.73, 10.73, 10.73, 10.73, 10.73, 11.18, 11.18, 11.18, 11.18, 11.18, 11.18, 11.18, 11.62, 11.62, 11.62, 11.62, 11.62, 12.07, 12.07, 12.52, 12.96, 13.41, 13.86, 12.52, 11.18, 9.83, 9.39, 8.94, 8.94, 9.83, 10.73, 11.18, 11.18, 10.73, 10.73, 10.73, 2.24, 2.24, 2.24, 2.68, 2.68, 2.68, 3.13, 3.13, 3.13, 3.58, 3.58, 4.02, 4.02, 4.02, 4.47, 4.47, 4.47, 4.47, 4.92, 4.92, 4.92, 5.36, 5.36, 5.81, 5.81, 5.81, 6.26, 6.26, 6.26, 6.26, 6.71, 6.71, 6.71, 6.71, 6.71, 7.15, 7.15, 7.15, 7.15, 7.6, 7.6, 7.6, 8.05, 8.05, 8.05, 8.49, 8.49, 8.94, 8.94, 8.94, 9.39, 9.39, 9.39, 9.83, 9.83, 9.83, 10.28, 10.28, 10.28, 10.28, 10.28, 10.28, 10.73, 10.73, 10.73, 10.73, 10.73, 10.73, 10.73, 10.73, 11.18, 11.18, 11.18, 11.18, 11.18, 11.62, 11.62, 11.62, 11.62, 11.62, 12.07, 12.52, 12.96, 13.86, 14.3, 13.41, 11.62, 10.73, 9.83, 9.39, 9.39, 9.83, 10.28, 10.73, 10.28, 9.83, 9.83, 9.83, 2.24, 2.24, 2.24, 2.24, 2.68, 2.68, 3.13, 3.13, 3.13, 3.58, 3.58, 3.58, 4.02, 4.02, 4.02, 4.47, 4.47, 4.47, 4.92, 4.92, 4.92, 5.36, 5.36, 5.36, 5.81, 5.81, 6.26, 6.26, 6.26, 6.26, 6.26, 6.71, 6.71, 6.71, 6.71, 6.71, 7.15, 7.15, 7.15, 7.6, 7.6, 7.6, 8.05, 8.05, 8.05, 8.49, 8.49, 8.49, 8.94, 8.94, 9.39, 9.39, 9.39, 9.83, 9.83, 9.83, 9.83, 10.28, 10.28, 10.28, 10.28, 10.28, 10.28, 10.73, 10.73, 10.73, 10.73, 10.73, 10.73, 10.73, 10.73, 11.18, 11.18, 11.18, 11.18, 11.18, 11.62, 11.62, 11.62, 11.62, 12.07, 12.52, 12.96, 13.86, 14.3, 14.3, 12.96, 11.18, 10.28, 9.83, 9.39, 9.39, 9.83, 9.83, 9.39, 9.39, 9.39, 9.39, 2.24, 2.24, 2.24, 2.24, 2.68, 2.68, 3.13, 3.13, 3.13, 3.58, 3.58, 3.58, 4.02, 4.02, 4.02, 4.47, 4.47, 4.47, 4.92, 4.92, 4.92, 5.36, 5.36, 5.36, 5.81, 5.81, 6.26, 6.26, 6.26, 6.26, 6.26, 6.71, 6.71, 6.71, 6.71, 6.71, 7.15, 7.15, 7.15, 7.6, 7.6, 7.6, 8.05, 8.05, 8.05, 8.49, 8.49, 8.49, 8.94, 8.94, 9.39, 9.39, 9.39, 9.83, 9.83, 9.83, 9.83, 10.28, 10.28, 10.28, 10.28, 10.28, 10.28, 10.73, 10.73, 10.73, 10.73, 10.73, 10.73, 10.73, 10.73, 11.18, 11.18, 11.18, 11.18, 11.18, 11.62, 11.62, 11.62, 11.62, 12.07, 12.52, 12.96, 13.41, 14.3, 14.3, 13.86, 12.52, 11.18, 10.28, 9.83, 9.39, 9.39, 8.94, 8.94, 8.49, 8.49, 8.49]}]